Laatste waarneming: 01:07
Temperatuur:6,9°C
Dauwpunt:2,0°C
Rel. vocht:71,0%
Natte-bol:4,8°C
Wind (gem. 10 min.):2,8 m/s
Wind (max. 10 min.):1.7E+308 m/s
Windrichting:13°
Neerslagsom:0,0 mm
Neerslagintensiteit:0,0 mm/u
Luchtdruk:1027,7 hPa
Straling:0,0 W/m2
 
Maximumtemp.:6,9°C (00:37)
Minimumtemp.:6,5°C (00:00)
Hoogste windstoot:- m/s (00:15)


Bekijk de verwachting.

Bekijk de grafieken.
Bekijk het weekoverzicht.
Bekijk het maandoverzicht.
Bekijk het jaaroverzicht.
Dagtabel
Tijd Temp. Dauwp. Natte-bol Rel. Hum. Windsnelh. Windricht. Windstoot Neerslag Straling Luchtdruk
 
01:07 6,9 2,0 4,8 71,0 2,8 13 - 0,0 0 1.027,7
01:06 6,9 2,0 4,8 71,0 2,7 12 - 0,0 0 1.027,7
01:05 6,9 2,0 4,8 71,0 2,6 11 - 0,0 0 1.027,7
01:04 6,9 1,9 4,7 70,3 2,7 11 - 0,0 0 1.027,7
01:03 6,9 2,0 4,8 70,9 2,9 11 - 0,0 0 1.027,7
01:02 6,9 1,8 4,7 70,0 2,3 16 - 0,0 0 1.027,7
01:01 6,9 1,8 4,7 70,0 2,1 22 - 0,0 0 1.027,7
01:00 6,9 1,7 4,7 69,5 2,3 28 - 0,0 0 1.027,7
 
00:59 6,9 1,6 4,6 69,0 2,3 33 - 0,0 0 1.027,7
00:58 6,9 1,6 4,6 69,0 2,5 35 - 0,0 0 1.027,7
00:57 6,9 1,6 4,6 69,0 2,7 36 - 0,0 0 1.027,7
00:56 6,9 1,7 4,7 69,3 2,9 37 - 0,0 0 1.027,8
00:55 6,9 1,8 4,7 70,0 3,1 38 - 0,0 0 1.027,8
00:54 6,9 1,8 4,7 70,0 3,2 38 - 0,0 0 1.027,8
00:53 6,9 1,8 4,7 70,0 3,3 37 - 0,0 0 1.027,8
00:52 6,8 1,9 4,7 70,8 3,3 36 - 0,0 0 1.027,8
00:51 6,8 1,9 4,7 71,0 3,1 35 - 0,0 0 1.027,8
00:50 6,9 2,0 4,8 71,0 2,7 35 - 0,0 0 1.027,8
00:49 6,9 2,1 4,8 71,4 2,5 35 - 0,0 0 1.027,8
00:48 6,9 2,2 4,9 72,0 2,5 36 - 0,0 0 1.027,8
00:47 6,9 2,2 4,9 72,0 2,6 36 - 0,0 0 1.027,9
00:46 6,9 2,2 4,9 72,0 2,5 35 - 0,0 0 1.027,9
00:45 6,9 2,2 4,9 72,0 2,4 33 - 0,0 0 1.027,8
00:44 6,9 2,2 4,9 72,0 2,5 32 - 0,0 0 1.027,9
00:43 6,9 2,2 4,9 72,0 2,8 31 - 0,0 0 1.027,9
00:42 6,9 2,2 4,9 72,0 3,0 30 - 0,0 0 1.027,9
00:41 6,9 2,2 4,9 72,0 2,7 31 - 0,0 0 1.027,9
00:40 6,9 2,2 4,9 72,0 2,6 33 - 0,0 0 1.027,9
00:39 6,9 2,2 4,9 72,0 2,7 36 - 0,0 0 1.027,9
00:38 6,8 2,1 4,8 72,0 2,7 39 - 0,0 0 1.027,9
00:37 6,9 2,2 4,9 72,0 2,5 41 - 0,0 0 1.027,9
00:36 6,8 2,1 4,8 72,0 2,1 42 - 0,0 0 1.027,9
00:35 6,8 2,0 4,7 71,3 1,9 42 - 0,0 0 1.027,9
00:34 6,8 1,9 4,7 71,0 1,8 41 - 0,0 0 1.027,9
00:33 6,8 1,9 4,7 71,0 2,1 40 - 0,0 0 1.027,9
00:32 6,8 1,9 4,7 71,0 2,1 39 - 0,0 0 1.027,9
00:31 6,8 1,9 4,7 71,0 2,1 40 - 0,0 0 1.027,9
00:30 6,8 1,9 4,7 71,0 2,0 41 - 0,0 0 1.027,9
00:29 6,8 1,9 4,7 71,0 2,2 44 - 0,0 0 1.028,0
00:28 6,7 1,6 4,5 70,1 2,5 45 - 0,0 0 1.027,9
00:27 6,8 1,7 4,6 70,0 2,7 45 - 0,0 0 1.027,9
00:26 6,7 1,7 4,6 70,4 2,7 44 - 0,0 0 1.028,0
00:25 6,7 1,8 4,6 71,0 2,8 44 - 0,0 0 1.028,0
00:24 6,7 1,8 4,6 71,0 2,9 44 - 0,0 0 1.028,0
00:23 6,7 1,8 4,6 71,0 2,9 45 - 0,0 0 1.028,0
00:22 6,7 1,8 4,6 71,0 2,7 47 - 0,0 0 1.028,0
00:21 6,7 1,8 4,6 71,0 2,6 48 - 0,0 0 1.028,0
00:20 6,7 1,8 4,6 71,0 2,4 50 - 0,0 0 1.028,0
00:19 6,7 1,8 4,6 71,0 2,3 52 - 0,0 0 1.028,0
00:18 6,7 1,8 4,6 71,0 2,6 53 - 0,0 0 1.028,0
00:17 6,7 1,8 4,6 71,0 3,0 52 - 0,0 0 1.028,0
00:16 6,6 1,7 4,5 71,0 3,3 52 - 0,0 0 1.028,0
00:15 6,7 1,8 4,6 71,0 3,2 51 - 0,0 0 1.028,0
00:14 6,6 1,7 4,5 71,0 2,8 51 - 0,0 0 1.028,0
00:13 6,6 1,7 4,5 71,0 2,4 51 - 0,0 0 1.028,0
00:12 6,6 1,7 4,5 71,0 2,3 52 - 0,0 0 1.028,0
00:11 6,5 1,6 4,4 71,0 2,3 52 - 0,0 0 1.028,1
00:10 6,5 1,6 4,4 71,0 2,3 53 - 0,0 0 1.028,0
00:09 6,5 1,6 4,4 71,0 2,2 55 - 0,0 0 1.028,1
00:08 6,5 1,6 4,4 71,0 2,1 56 - 0,0 0 1.028,1
00:07 6,5 1,6 4,4 71,0 2,1 56 - 0,0 0 1.028,0
00:06 6,5 1,6 4,4 71,0 2,2 56 - 0,0 0 1.028,0
00:05 6,5 1,6 4,4 71,0 2,3 56 - 0,0 0 1.028,1
00:04 6,5 1,8 4,5 72,0 2,2 56 - 0,0 0 1.028,1
00:03 6,5 1,8 4,5 72,0 2,1 56 - 0,0 0 1.028,1
00:02 6,5 1,7 4,5 71,6 2,0 56 - 0,0 0 1.028,1
00:01 6,6 1,7 4,5 71,0 1,9 57 - 0,0 0 1.028,1
00:00 6,5 1,6 4,4 71,0 1,8 60 - 2,0 0 1.028,1
 
23:59 6,6 1,7 4,5 71,0 1,9 63 - 2,0 0 1.028,1
23:58 6,6 1,7 4,5 71,0 2,0 65 - 2,0 0 1.028,1
23:57 6,6 1,7 4,5 71,0 2,0 66 - 2,0 0 1.028,1
23:56 6,6 1,7 4,5 71,0 2,0 66 - 2,0 0 1.028,1
23:55 6,6 1,7 4,5 71,0 2,2 66 - 2,0 0 1.028,2
23:54 6,6 1,7 4,5 71,0 2,5 66 - 2,0 0 1.028,1
23:53 6,6 1,7 4,5 71,0 2,5 66 - 2,0 0 1.028,1
23:52 6,6 1,7 4,5 71,0 2,6 65 - 2,0 0 1.028,1
23:51 6,6 1,7 4,5 71,0 2,5 64 - 2,0 0 1.028,2
23:50 6,6 1,7 4,5 71,0 2,4 62 - 2,0 0 1.028,1
23:49 6,6 1,7 4,5 71,0 2,3 61 - 2,0 0 1.028,1
23:48 6,6 1,7 4,5 71,0 2,6 60 - 2,0 0 1.028,1
23:47 6,6 1,7 4,5 71,0 3,0 58 - 2,0 0 1.028,2
23:46 6,6 1,7 4,5 71,0 3,0 57 - 2,0 0 1.028,1
23:45 6,6 1,7 4,5 71,0 2,7 58 - 2,0 0 1.028,2
23:44 6,6 1,7 4,5 71,0 2,3 59 - 2,0 0 1.028,2
23:43 6,6 1,7 4,5 71,0 2,1 60 - 2,0 0 1.028,2
23:42 6,6 1,7 4,5 71,0 2,1 60 - 2,0 0 1.028,2
23:41 6,6 1,7 4,5 71,0 2,4 60 - 2,0 0 1.028,2
23:40 6,7 1,8 4,6 71,0 2,5 60 - 2,0 0 1.028,1
23:39 6,6 1,8 4,6 71,4 2,5 61 - 2,0 0 1.028,2
23:38 6,7 2,0 4,7 72,0 2,3 60 - 2,0 0 1.028,1
23:37 6,7 2,0 4,7 72,0 2,3 58 - 2,0 0 1.028,2
23:36 6,7 2,0 4,7 72,0 2,4 57 - 2,0 0 1.028,2
23:35 6,7 2,0 4,7 72,0 2,3 56 - 2,0 0 1.028,1
23:34 6,7 2,0 4,7 72,0 2,3 56 - 2,0 0 1.028,1
23:33 6,7 2,0 4,7 72,0 2,3 55 - 2,0 0 1.028,2
23:32 6,7 2,0 4,7 72,0 2,4 54 - 2,0 0 1.028,2
23:31 6,7 2,0 4,7 72,0 2,2 54 - 2,0 0 1.028,2
23:30 6,7 1,9 4,6 71,2 2,1 56 - 2,0 0 1.028,2
23:29 6,7 1,8 4,6 71,0 2,2 57 - 2,0 0 1.028,2
23:28 6,8 1,9 4,7 71,0 2,2 57 - 2,0 0 1.028,2
23:27 6,8 1,9 4,7 71,0 2,3 58 - 2,0 0 1.028,2
23:26 6,8 1,9 4,7 71,0 2,4 58 - 2,0 0 1.028,2
23:25 6,8 1,9 4,7 71,0 2,8 59 - 2,0 0 1.028,2
23:24 6,8 1,9 4,7 71,0 3,0 58 - 2,0 0 1.028,2
23:23 6,8 1,9 4,7 71,0 2,9 58 - 2,0 0 1.028,2
23:22 6,8 1,9 4,7 71,0 2,9 59 - 2,0 0 1.028,2
23:21 6,8 1,9 4,7 71,0 2,9 60 - 2,0 0 1.028,2
23:20 6,8 1,9 4,7 71,0 2,8 61 - 2,0 0 1.028,2
23:19 6,8 1,9 4,7 71,0 2,7 62 - 2,0 0 1.028,2
23:18 6,8 1,9 4,7 71,0 2,6 62 - 2,0 0 1.028,2
23:17 6,9 2,0 4,8 71,0 2,7 61 - 2,0 0 1.028,2
23:16 6,9 2,0 4,8 71,0 3,1 59 - 2,0 0 1.028,2
23:15 6,9 2,0 4,8 71,0 3,4 58 - 2,0 0 1.028,2
23:14 6,9 2,0 4,8 71,0 3,5 57 - 2,0 0 1.028,2
23:13 6,9 2,0 4,8 71,0 3,8 55 - 2,0 0 1.028,2
23:12 6,9 2,0 4,8 71,0 4,3 54 - 2,0 0 1.028,2
23:11 6,8 1,9 4,7 71,0 4,4 55 - 2,0 0 1.028,3
23:10 6,8 1,9 4,7 71,0 4,1 55 - 2,0 0 1.028,2
23:09 6,8 1,9 4,7 71,0 3,7 53 - 2,0 0 1.028,2
23:08 6,9 2,0 4,8 71,0 3,4 51 - 2,0 0 1.028,1
23:07 6,9 2,0 4,8 71,0 2,8 50 - 2,0 0 1.028,1
23:06 6,9 2,0 4,8 71,0 2,6 50 - 2,0 0 1.028,2
23:05 6,9 2,0 4,8 71,0 3,1 52 - 2,0 0 1.028,2
23:04 6,9 2,0 4,8 71,0 3,6 53 - 2,0 0 1.028,2
23:03 6,9 2,1 4,8 71,5 3,7 54 - 2,0 0 1.028,2
23:02 6,9 2,2 4,9 72,0 3,4 54 - 2,0 0 1.028,1
23:01 6,9 2,1 4,8 71,3 3,1 53 - 2,0 0 1.028,2
23:00 6,9 2,0 4,8 71,0 3,0 51 - 2,0 0 1.028,2
 
22:58 6,9 2,2 4,9 72,0 3,2 48 - 2,0 0 1.028,2
22:57 6,9 2,2 4,9 72,0 3,6 46 - 2,0 0 1.028,1
22:56 6,9 2,2 4,9 72,0 3,7 44 - 2,0 0 1.028,1
22:55 6,9 2,2 4,9 72,0 3,7 44 - 2,0 0 1.028,1
22:54 6,9 2,2 4,9 72,0 3,5 43 - 2,0 0 1.028,2
22:53 6,9 2,2 4,9 72,0 3,3 44 - 2,0 0 1.028,2
22:52 6,9 2,2 4,9 72,0 3,2 46 - 2,0 0 1.028,2
22:51 6,9 2,2 4,9 72,0 3,3 49 - 2,0 0 1.028,2
22:50 6,9 2,2 4,9 72,0 3,2 52 - 2,0 0 1.028,1
22:49 6,9 2,2 4,9 72,0 3,2 55 - 2,0 0 1.028,1
22:48 6,9 2,2 4,9 72,0 3,4 58 - 2,0 0 1.028,2
22:47 6,9 2,2 4,9 72,0 3,9 58 - 2,0 0 1.028,1
22:46 6,9 2,2 4,9 72,0 4,1 57 - 2,0 0 1.028,1
22:45 6,9 2,2 4,9 72,0 3,9 56 - 2,0 0 1.028,1
22:44 6,9 2,2 4,9 72,0 3,8 55 - 2,0 0 1.028,1
22:43 6,9 2,2 4,9 72,0 3,7 54 - 2,0 0 1.028,1
22:42 6,9 2,2 4,9 72,0 3,7 55 - 2,0 0 1.028,1
22:41 6,9 2,2 4,9 72,0 3,7 57 - 2,0 0 1.028,0
22:40 6,9 2,3 4,9 72,4 3,5 59 - 2,0 0 1.028,0
22:39 6,9 2,4 5,0 73,0 3,3 61 - 2,0 0 1.028,1
22:38 6,9 2,3 4,9 72,3 3,5 62 - 2,0 0 1.028,1
22:37 6,9 2,4 5,0 72,9 4,1 62 - 2,0 0 1.028,1
22:36 6,9 2,4 5,0 73,0 4,5 62 - 2,0 0 1.028,0
22:35 6,9 2,4 5,0 73,0 4,6 60 - 2,0 0 1.028,0
22:34 6,9 2,4 5,0 73,0 4,6 59 - 2,0 0 1.028,0
22:33 6,9 2,4 5,0 73,0 4,5 58 - 2,0 0 1.028,1
22:32 6,9 2,5 5,0 73,8 4,3 57 - 2,0 0 1.028,0
22:31 6,9 2,6 5,1 74,0 4,0 55 - 2,0 0 1.028,0
22:30 6,9 2,6 5,1 74,0 3,8 54 - 2,0 0 1.028,0
22:29 6,9 2,6 5,1 74,0 3,2 54 - 2,0 0 1.028,0
22:28 6,9 2,6 5,1 74,0 3,0 56 - 2,0 0 1.028,0
22:27 6,9 2,6 5,1 74,0 3,2 58 - 2,0 0 1.028,0
22:26 6,9 2,6 5,1 74,0 3,5 59 - 2,0 0 1.028,0
22:25 6,9 2,6 5,1 74,0 3,6 61 - 2,0 0 1.028,0
22:24 6,9 2,6 5,1 74,0 3,4 62 - 2,0 0 1.028,0
22:23 6,9 2,6 5,1 74,0 3,1 61 - 2,0 0 1.027,9
22:22 6,9 2,6 5,1 74,0 3,0 60 - 2,0 0 1.027,9
22:21 6,9 2,6 5,1 74,0 3,2 59 - 2,0 0 1.027,9
22:20 6,9 2,6 5,1 74,0 3,4 59 - 2,0 0 1.028,0
22:19 6,9 2,6 5,1 74,0 3,2 59 - 2,0 0 1.027,9
22:18 6,9 2,6 5,1 74,0 2,9 61 - 2,0 0 1.027,9
22:17 6,9 2,6 5,1 74,0 2,5 61 - 2,0 0 1.027,9
22:16 6,9 2,6 5,1 74,0 2,2 60 - 2,0 0 1.027,9
22:15 6,9 2,6 5,1 74,0 2,4 57 - 2,0 0 1.027,9
22:14 6,9 2,6 5,1 74,0 2,7 55 - 2,0 0 1.027,9
22:13 7,0 2,7 5,1 74,0 3,2 53 - 2,0 0 1.027,9
22:12 7,0 2,7 5,1 74,0 3,3 52 - 2,0 0 1.027,9
22:11 7,0 2,7 5,1 74,0 3,3 51 - 2,0 0 1.027,9
22:10 7,0 2,7 5,1 74,0 3,3 52 - 2,0 0 1.027,9
22:09 7,0 2,7 5,1 74,0 3,1 53 - 2,0 0 1.027,9
22:08 7,1 2,8 5,2 74,0 2,8 53 - 2,0 0 1.027,8
22:07 7,1 2,8 5,2 74,0 2,6 52 - 2,0 0 1.027,8
22:06 7,1 2,8 5,2 74,0 2,9 51 - 2,0 0 1.027,8
22:05 7,1 2,8 5,2 74,0 3,3 49 - 2,0 0 1.027,8
22:04 7,1 2,8 5,2 74,0 3,8 48 - 2,0 0 1.027,8
22:03 7,1 2,8 5,2 74,0 4,1 46 - 2,0 0 1.027,8
22:02 7,1 2,8 5,2 74,0 4,3 45 - 2,0 0 1.027,8
22:01 7,1 2,8 5,2 74,0 4,2 45 - 2,0 0 1.027,8
22:00 7,1 2,8 5,2 74,0 4,2 45 - 2,0 0 1.027,9
 
21:59 7,1 2,8 5,2 74,0 3,7 46 - 2,0 0 1.027,8
21:58 7,1 2,8 5,2 74,0 3,5 46 - 2,0 0 1.027,8
21:57 7,1 2,8 5,2 74,0 3,5 47 - 2,0 0 1.027,8
21:56 7,1 2,8 5,2 74,0 4,0 48 - 2,0 0 1.027,7
21:55 7,1 2,8 5,2 74,0 4,2 47 - 2,0 0 1.027,7
21:54 7,1 2,8 5,2 74,0 4,1 47 - 2,0 0 1.027,8
21:53 7,1 2,8 5,2 74,0 4,0 46 - 2,0 0 1.027,7
21:52 7,1 2,8 5,2 74,0 4,0 45 - 2,0 0 1.027,7
21:51 7,1 2,8 5,2 74,0 3,8 45 - 2,0 0 1.027,7
21:50 7,1 2,8 5,2 74,0 3,8 45 - 2,0 0 1.027,7
21:49 7,1 2,8 5,2 74,0 4,3 46 - 2,0 0 1.027,7
21:48 7,1 2,8 5,2 74,0 4,5 48 - 2,0 0 1.027,7
21:47 7,1 2,8 5,2 74,0 4,5 50 - 2,0 0 1.027,7
21:46 7,1 2,8 5,2 74,0 4,2 53 - 2,0 0 1.027,7
21:45 7,1 2,8 5,2 74,0 4,0 55 - 2,0 0 1.027,7
21:44 7,1 2,8 5,2 74,0 3,7 56 - 2,0 0 1.027,7
21:43 7,1 2,8 5,3 74,2 3,7 56 - 2,0 0 1.027,7
21:42 7,1 3,0 5,3 75,0 3,8 55 - 2,0 0 1.027,7
21:41 7,1 3,0 5,3 75,0 4,1 54 - 2,0 0 1.027,7
21:40 7,1 3,0 5,3 75,0 4,2 53 - 2,0 0 1.027,7
21:39 7,1 3,0 5,3 75,0 4,2 53 - 2,0 0 1.027,7
21:38 7,1 3,0 5,3 75,0 4,0 54 - 2,0 0 1.027,7
21:37 7,1 3,0 5,3 75,0 3,7 55 - 2,0 0 1.027,7
21:36 7,1 3,0 5,3 75,0 3,7 56 - 2,0 0 1.027,7
21:35 7,1 3,0 5,3 75,0 3,3 57 - 2,0 0 1.027,6
21:34 7,1 3,0 5,3 75,0 2,9 56 - 2,0 0 1.027,7
21:33 7,1 3,0 5,3 75,0 2,6 56 - 2,0 0 1.027,7
21:32 7,1 3,0 5,3 75,0 2,9 56 - 2,0 0 1.027,7
21:31 7,1 3,0 5,3 75,0 2,9 58 - 2,0 0 1.027,7
21:30 7,1 3,0 5,3 75,0 2,8 60 - 2,0 0 1.027,7
21:29 7,1 3,0 5,3 75,0 3,3 61 - 2,0 0 1.027,7
21:28 7,1 3,0 5,3 75,0 3,7 60 - 2,0 0 1.027,7
21:27 7,1 3,0 5,3 75,0 3,7 60 - 2,0 0 1.027,7
21:26 7,1 3,0 5,3 75,0 3,5 59 - 2,0 0 1.027,6
21:25 7,1 3,0 5,3 75,0 3,5 58 - 2,0 0 1.027,6
21:24 7,1 3,0 5,3 75,0 3,5 57 - 2,0 0 1.027,7
21:23 7,2 3,1 5,4 75,0 3,3 57 - 2,0 0 1.027,6
21:22 7,2 3,1 5,4 75,0 3,2 58 - 2,0 0 1.027,7
21:21 7,2 3,1 5,4 75,0 3,4 58 - 2,0 0 1.027,7
21:20 7,2 3,1 5,4 75,0 3,9 58 - 2,0 0 1.027,7
21:19 7,2 3,1 5,4 75,0 3,7 59 - 2,0 0 1.027,6
21:18 7,3 3,2 5,5 75,0 3,2 60 - 2,0 0 1.027,6
21:17 7,3 3,2 5,5 75,0 3,0 62 - 2,0 0 1.027,6
21:16 7,3 3,2 5,5 75,0 3,2 65 - 2,0 0 1.027,6
21:15 7,3 3,2 5,5 75,0 3,6 69 - 2,0 0 1.027,6
21:14 7,4 3,3 5,6 75,0 3,4 72 - 2,0 0 1.027,6
21:13 7,4 3,3 5,6 75,0 3,0 75 - 2,0 0 1.027,6
21:12 7,4 3,3 5,6 75,0 2,8 77 - 2,0 0 1.027,6
21:11 7,4 3,1 5,6 74,4 2,9 79 - 2,0 0 1.027,6
21:10 7,4 3,2 5,6 74,8 2,6 78 - 2,0 0 1.027,5
21:09 7,5 3,2 5,6 74,1 2,3 76 - 2,0 0 1.027,5
21:08 7,5 3,2 5,6 74,0 2,4 73 - 2,0 0 1.027,5
21:07 7,5 3,2 5,6 74,0 2,3 70 - 2,0 0 1.027,5
21:06 7,5 3,2 5,6 74,0 2,4 69 - 2,0 0 1.027,5
21:05 7,6 3,3 5,7 74,0 3,3 68 - 2,0 0 1.027,4
21:04 7,6 3,1 5,6 73,1 4,2 68 - 2,0 0 1.027,5
21:03 7,6 3,1 5,6 73,0 4,0 68 - 2,0 0 1.027,4
21:02 7,6 3,1 5,6 73,0 3,5 68 - 2,0 0 1.027,5
21:01 7,6 3,1 5,6 73,0 3,4 67 - 2,0 0 1.027,5
21:00 7,6 3,1 5,6 73,0 3,6 67 - 2,0 0 1.027,4
 
20:59 7,6 3,1 5,6 73,0 3,6 66 - 2,0 0 1.027,4
20:58 7,6 3,1 5,6 73,0 3,7 65 - 2,0 0 1.027,4
20:57 7,7 3,0 5,7 72,1 4,1 66 - 2,0 0 1.027,4
20:56 7,7 3,0 5,6 72,0 4,4 65 - 2,0 0 1.027,3
20:55 7,7 3,0 5,6 72,0 4,7 64 - 2,0 0 1.027,4
20:54 7,7 3,0 5,6 72,0 4,6 61 - 2,0 0 1.027,4
20:53 7,7 3,0 5,6 72,0 4,4 59 - 2,0 0 1.027,4
20:52 7,7 3,0 5,6 72,0 4,4 58 - 2,0 0 1.027,3
20:51 7,7 3,0 5,6 72,0 4,6 56 - 2,0 0 1.027,3
20:50 7,7 3,0 5,6 72,0 4,6 56 - 2,0 0 1.027,3
20:49 7,7 3,0 5,6 72,0 4,5 57 - 2,0 0 1.027,3
20:48 7,8 3,1 5,7 72,0 4,6 58 - 2,0 0 1.027,2
20:47 7,8 3,1 5,7 72,0 5,1 58 - 2,0 1 1.027,3
20:46 7,8 3,1 5,7 72,0 5,5 57 - 2,0 5 1.027,2
20:45 7,8 3,1 5,7 72,0 5,5 55 - 2,0 5 1.027,1
20:44 7,8 3,1 5,7 72,0 5,4 54 - 2,0 5 1.027,2
20:43 7,8 3,1 5,7 72,0 5,2 53 - 2,0 5 1.027,2
20:42 7,8 3,1 5,7 72,0 5,0 52 - 2,0 5 1.027,2
20:41 7,8 3,1 5,7 72,0 5,0 53 - 2,0 7 1.027,2
20:40 7,9 3,2 5,8 72,0 5,2 55 - 2,0 7 1.027,3
20:39 7,9 3,2 5,8 72,0 5,1 56 - 2,0 7 1.027,2
20:38 7,9 3,2 5,9 72,3 4,9 57 - 2,0 8 1.027,3
20:37 7,9 3,3 5,9 72,6 4,7 57 - 2,0 9 1.027,2
20:36 7,9 3,2 5,8 72,0 4,9 56 - 2,0 9 1.027,2
20:35 7,9 3,2 5,8 72,0 4,9 54 - 2,0 9 1.027,3
20:34 8,0 3,3 5,9 72,0 5,1 52 - 2,0 11 1.027,2
20:33 8,0 3,3 5,9 72,0 5,5 52 - 2,0 11 1.027,2
20:32 8,0 3,3 5,9 72,0 6,0 52 - 2,0 11 1.027,1
20:31 8,0 3,4 6,0 72,5 6,3 52 - 2,0 11 1.027,2
20:30 8,0 3,5 6,0 73,0 6,3 53 - 2,0 12 1.027,1
20:29 8,0 3,5 6,0 73,0 6,0 53 - 2,0 12 1.027,2
20:28 8,0 3,5 6,0 73,0 5,8 54 - 2,0 12 1.027,1
20:27 8,0 3,5 6,0 73,0 5,7 55 - 2,0 13 1.027,2
20:26 8,0 3,5 6,0 73,0 5,7 56 - 2,0 14 1.027,1
20:25 8,0 3,6 6,1 73,5 6,0 57 - 2,0 16 1.027,1
20:24 8,1 3,7 6,2 74,0 5,9 57 - 2,0 16 1.027,2
20:23 8,1 3,7 6,2 74,0 5,2 58 - 2,0 16 1.027,1
20:22 8,0 3,6 6,1 74,0 4,9 59 - 2,0 17 1.027,1
20:21 8,0 3,7 6,1 74,3 5,1 59 - 2,0 18 1.027,1
20:20 8,0 3,8 6,2 75,0 4,6 58 - 2,0 18 1.027,1
20:19 8,1 3,9 6,3 75,0 4,6 57 - 2,0 18 1.027,0
20:18 8,1 3,9 6,3 75,0 4,6 57 - 2,0 18 1.027,0
20:17 8,1 3,9 6,3 75,0 4,8 56 - 2,0 18 1.027,0
20:16 8,0 3,8 6,2 75,0 4,7 53 - 2,0 19 1.027,0
20:15 8,0 3,8 6,2 75,0 4,7 52 - 2,0 19 1.027,0
20:14 8,0 3,9 6,2 75,5 5,1 52 - 2,0 19 1.027,0
20:13 8,1 4,1 6,4 76,0 5,0 53 - 2,0 18 1.027,0
20:12 8,1 4,1 6,4 76,0 4,7 54 - 2,0 15 1.027,0
20:11 8,1 4,1 6,4 76,0 4,3 56 - 2,0 16 1.027,0
20:10 8,1 4,1 6,4 76,1 4,1 58 - 2,0 14 1.026,9
20:09 8,1 4,3 6,5 77,0 4,3 59 - 2,0 13 1.026,9
20:08 8,1 4,3 6,5 77,0 4,8 60 - 2,0 14 1.027,0
20:07 8,1 4,3 6,5 77,0 5,1 60 - 2,0 14 1.026,9
20:06 8,1 4,4 6,5 77,7 5,1 59 - 2,0 15 1.026,9
20:05 8,2 4,6 6,6 78,0 4,7 59 - 2,0 19 1.027,0
20:04 8,2 4,8 6,7 79,0 4,2 59 - 2,0 19 1.026,9
20:03 8,2 4,8 6,7 79,0 3,5 59 - 2,0 23 1.027,0
20:02 8,2 4,8 6,7 79,0 2,9 60 - 2,0 29 1.027,0
20:01 8,2 4,9 6,8 79,6 2,4 61 - 2,0 30 1.026,9
20:00 8,3 4,9 6,9 79,3 2,1 63 - 2,0 34 1.027,0
 
19:59 8,3 5,0 6,9 79,9 1,6 67 - 2,0 40 1.027,0
19:58 8,3 5,1 6,9 80,0 1,1 72 - 2,0 45 1.026,9
19:57 8,3 5,1 6,9 80,0 0,9 77 - 2,0 48 1.026,9
19:56 8,2 4,9 6,8 79,6 1,0 80 - 2,0 48 1.026,9
19:55 8,2 4,9 6,8 79,6 1,0 81 - 2,0 46 1.026,9
19:54 8,2 4,8 6,8 79,3 0,9 82 - 2,0 47 1.026,9
19:53 8,3 4,9 6,8 79,0 0,7 81 - 2,0 50 1.026,9
19:52 8,3 5,1 6,9 80,0 0,8 80 - 2,0 56 1.026,9
19:51 8,3 5,1 6,9 80,0 0,9 80 - 2,0 65 1.026,9
19:50 8,3 5,1 6,9 80,0 0,8 80 - 2,0 79 1.026,9
19:49 8,3 4,9 6,9 79,4 0,8 80 - 2,0 90 1.026,9
19:48 8,3 5,0 6,9 79,8 0,7 81 - 2,0 97 1.026,8
19:47 8,2 5,0 6,8 80,0 0,5 81 - 2,0 97 1.026,8
19:46 8,2 4,9 6,8 79,9 0,5 82 - 2,0 98 1.026,8
19:45 8,2 4,8 6,8 79,3 0,5 84 - 2,0 102 1.026,8
19:44 8,1 4,9 6,7 80,0 0,5 85 - 2,0 105 1.026,8
19:43 8,1 4,7 6,7 79,3 0,3 87 - 2,0 97 1.026,9
19:42 8,0 4,6 6,5 79,0 0,1 89 - 2,0 95 1.026,8
19:41 8,0 4,6 6,5 79,0 0,0 91 - 2,0 84 1.026,8
19:40 8,0 4,6 6,5 79,0 0,0 93 - 2,0 74 1.026,7
19:39 8,0 4,6 6,5 79,0 0,1 94 - 2,0 66 1.026,8
19:38 8,0 4,6 6,5 79,0 0,2 94 - 2,0 61 1.026,7
19:37 8,1 4,7 6,6 79,0 0,3 94 - 2,0 58 1.026,7
19:36 8,0 4,6 6,5 79,0 0,4 94 - 2,0 56 1.026,7
19:35 8,1 4,7 6,6 79,0 0,5 94 - 2,0 54 1.026,8
19:34 8,1 4,7 6,6 79,0 0,4 94 - 2,0 85 1.026,7
19:33 8,2 4,7 6,7 78,7 0,3 94 - 2,0 73 1.026,7
19:32 8,2 4,6 6,6 78,0 0,4 94 - 2,0 42 1.026,8
19:31 8,3 4,7 6,7 78,0 0,6 94 - 2,0 35 1.026,8
19:30 8,4 4,8 6,8 78,0 0,7 94 - 2,0 36 1.026,8
19:29 8,5 5,0 7,0 78,9 0,5 94 - 2,0 37 1.026,9
19:28 8,6 5,0 7,0 78,0 0,5 95 - 2,0 38 1.026,8
19:27 8,6 5,0 7,0 78,0 0,6 97 - 2,0 40 1.026,9
19:26 8,7 5,1 7,1 78,0 0,7 100 - 2,0 43 1.026,8
19:25 8,7 5,1 7,1 78,0 0,7 101 - 2,0 44 1.026,8
19:24 8,7 5,1 7,1 78,0 1,1 103 - 2,0 50 1.026,8
19:23 8,7 5,0 7,1 77,8 1,2 105 - 2,0 46 1.026,8
19:22 8,6 4,8 6,9 77,0 1,3 107 - 2,0 49 1.026,8
19:21 8,7 4,8 7,0 76,6 1,1 112 - 2,0 60 1.026,8
19:20 8,8 4,8 7,0 76,0 0,8 121 - 2,0 63 1.026,8
19:19 8,9 5,1 7,2 76,9 0,6 144 - 2,0 70 1.026,8
19:18 9,0 5,0 7,3 76,2 0,3 170 - 2,0 86 1.026,8
19:17 9,1 4,9 7,3 75,1 0,7 180 - 2,0 142 1.026,8
19:16 9,3 5,1 7,4 74,8 1,5 181 - 2,0 190 1.026,8
19:15 9,4 5,0 7,4 74,0 1,8 178 - 2,0 200 1.026,7
19:14 9,5 5,0 7,5 73,5 1,8 174 - 2,0 228 1.026,8
19:13 9,6 5,0 7,5 73,0 2,4 168 - 1,8 266 1.026,8
19:12 9,6 5,0 7,5 73,0 2,4 161 - 1,8 318 1.026,7
19:11 9,6 5,0 7,5 73,0 2,7 154 - 1,8 355 1.026,7
19:10 9,6 5,0 7,5 73,0 2,8 149 - 1,8 366 1.026,7
19:09 9,7 5,1 7,6 73,0 3,2 146 - 1,8 363 1.026,7
19:08 9,7 5,1 7,6 73,0 3,7 147 - 1,8 362 1.026,7
19:07 9,7 5,1 7,6 73,0 2,9 151 - 1,8 366 1.026,7
19:06 9,7 5,1 7,6 73,0 2,6 152 - 1,8 361 1.026,6
19:05 9,7 5,2 7,7 73,8 2,3 147 - 1,8 347 1.026,6
19:04 9,6 5,0 7,5 73,0 1,6 134 - 1,8 330 1.026,7
19:03 9,5 4,9 7,4 73,0 1,6 115 - 1,8 314 1.026,6
19:02 9,4 4,9 7,4 73,6 4,2 101 - 1,8 302 1.026,6
19:01 9,3 4,9 7,3 74,0 4,0 92 - 1,8 296 1.026,7
19:00 9,2 4,8 7,2 74,0 3,7 87 - 1,8 289 1.026,6
 
18:59 9,3 4,9 7,4 74,2 3,9 83 - 1,8 284 1.026,6
18:58 9,3 5,2 7,5 75,4 3,8 79 - 1,8 282 1.026,6
18:57 9,2 5,2 7,4 76,0 3,4 76 - 1,8 283 1.026,6
18:56 9,2 5,2 7,4 76,0 2,9 74 - 1,8 287 1.026,6
18:55 9,2 5,3 7,5 76,8 2,5 73 - 1,8 291 1.026,6
18:54 9,2 5,4 7,5 77,0 2,4 73 - 1,8 285 1.026,5
18:53 9,1 5,3 7,4 77,2 2,3 74 - 1,8 273 1.026,6
18:52 9,1 5,5 7,5 78,0 2,1 74 - 1,8 256 1.026,6
18:51 9,1 5,4 7,5 77,5 1,6 73 - 1,8 243 1.026,6
18:50 9,1 5,4 7,5 77,7 1,3 70 - 1,8 237 1.026,6
18:49 9,1 5,5 7,5 78,0 1,2 66 - 1,8 232 1.026,6
18:48 9,0 5,4 7,4 78,0 1,2 64 - 1,8 224 1.026,6
18:47 9,0 5,4 7,5 78,3 1,2 63 - 1,8 219 1.026,5
18:46 8,9 5,4 7,4 78,6 1,3 62 - 1,8 217 1.026,5
18:45 8,8 5,2 7,2 78,0 1,4 61 - 1,8 216 1.026,5
18:44 8,8 5,2 7,2 78,0 1,4 61 - 1,8 216 1.026,5
18:43 8,8 5,2 7,2 78,0 1,4 60 - 1,8 218 1.026,5
18:42 8,8 5,4 7,3 79,0 1,3 59 - 1,8 218 1.026,5
18:41 8,7 5,3 7,2 79,0 1,2 57 - 1,8 219 1.026,5
18:40 8,6 5,2 7,1 79,0 1,2 54 - 1,8 221 1.026,5
18:39 8,5 5,1 7,0 79,0 1,1 52 - 1,8 227 1.026,5
18:38 8,4 4,8 6,9 78,3 1,1 49 - 1,8 204 1.026,5
18:37 8,4 4,8 6,9 78,2 1,1 48 - 1,8 53 1.026,5
18:36 8,4 5,0 6,9 79,0 1,2 47 - 1,8 51 1.026,4
18:35 8,5 5,1 7,0 79,0 1,3 46 - 1,8 49 1.026,5
18:34 8,5 5,1 7,0 79,0 1,3 44 - 1,8 49 1.026,5
18:33 8,6 5,2 7,1 79,0 1,3 42 - 1,8 84 1.026,5
18:32 8,6 5,2 7,1 79,0 1,1 41 - 1,8 54 1.026,5
18:31 8,6 5,3 7,2 79,9 1,1 41 - 1,8 57 1.026,5
18:30 8,5 5,2 7,1 80,0 1,0 42 - 1,8 57 1.026,5
18:29 8,5 5,2 7,1 80,0 1,0 44 - 1,8 55 1.026,4
18:28 8,6 5,5 7,3 80,9 1,1 47 - 1,8 120 1.026,4
18:27 8,5 5,6 7,3 82,0 1,1 51 - 1,8 230 1.026,4
18:26 8,3 5,3 7,0 81,3 0,9 53 - 1,8 250 1.026,5
18:25 8,1 5,0 6,8 81,0 0,8 55 - 1,8 252 1.026,4
18:24 8,0 4,9 6,7 81,0 0,9 57 - 1,8 256 1.026,5
18:23 8,0 4,9 6,7 81,0 0,9 62 - 1,8 259 1.026,5
18:22 7,9 4,8 6,6 81,0 0,9 68 - 1,8 260 1.026,5
18:21 7,9 4,8 6,6 81,0 1,0 73 - 1,8 264 1.026,4
18:20 7,8 4,7 6,5 81,0 1,2 77 - 1,8 264 1.026,4
18:19 7,7 4,6 6,4 81,0 1,3 80 - 1,8 266 1.026,5
18:18 7,6 4,5 6,3 81,0 1,3 82 - 1,8 269 1.026,5
18:17 7,6 4,5 6,3 81,0 1,0 83 - 1,8 272 1.026,4
18:16 7,5 4,4 6,2 81,0 1,0 82 - 1,8 275 1.026,4
18:15 7,4 4,4 6,1 81,0 1,2 81 - 1,8 121 1.026,4
18:14 7,4 4,4 6,1 81,0 1,4 79 - 1,8 101 1.026,5
18:13 7,5 4,4 6,2 81,0 1,2 77 - 1,8 61 1.026,5
18:12 7,5 4,4 6,2 81,0 0,9 75 - 1,8 56 1.026,5
18:11 7,4 4,4 6,1 81,0 0,7 73 - 1,8 57 1.026,4
18:10 7,4 4,4 6,1 81,0 0,7 72 - 1,8 61 1.026,5
18:09 7,4 4,4 6,1 81,0 0,8 73 - 1,8 70 1.026,5
18:08 7,4 4,3 6,1 80,9 1,1 74 - 1,8 81 1.026,6
18:07 7,4 4,2 6,0 80,1 1,3 75 - 1,8 91 1.026,4
18:06 7,4 4,3 6,1 80,8 1,3 75 - 1,8 91 1.026,5
18:05 7,4 4,3 6,1 80,6 1,2 76 - 1,8 91 1.026,5
18:04 7,4 4,3 6,1 80,5 1,2 78 - 1,8 93 1.026,6
18:03 7,4 4,2 6,0 80,0 1,4 82 - 1,8 91 1.026,6
18:02 7,4 4,2 6,0 80,0 1,5 85 - 1,8 88 1.026,5
18:01 7,4 4,2 6,0 80,0 1,5 87 - 1,8 82 1.026,5
18:00 7,4 4,2 6,0 80,0 1,6 88 - 1,8 79 1.026,6
 
17:59 7,4 4,1 6,0 79,5 1,4 85 - 1,8 79 1.026,6
17:58 7,3 3,9 5,9 79,0 1,2 77 - 1,8 77 1.026,6
17:57 7,3 3,9 5,9 79,0 1,3 67 - 1,8 77 1.026,5
17:56 7,4 3,8 5,9 78,1 1,8 59 - 1,8 77 1.026,6
17:55 7,4 3,9 5,9 78,7 1,9 53 - 1,8 76 1.026,6
17:54 7,3 3,7 5,8 78,0 1,9 46 - 1,8 74 1.026,7
17:53 7,3 3,7 5,8 78,0 2,0 37 - 1,8 72 1.026,7
17:52 7,3 3,7 5,8 78,0 2,6 26 - 1,8 72 1.026,7
17:51 7,3 3,6 5,7 77,3 3,3 16 - 1,8 68 1.026,7
17:50 7,3 3,5 5,7 77,0 3,8 12 - 1,8 61 1.026,7
17:49 7,4 3,5 5,7 76,1 4,6 13 - 1,8 53 1.026,8
17:48 7,4 3,4 5,7 76,0 4,8 19 - 1,8 43 1.026,9
17:47 7,5 3,5 5,8 76,0 5,2 29 - 1,6 40 1.026,9
17:46 7,6 3,5 5,8 75,4 6,0 41 - 1,6 40 1.026,9
17:45 7,7 3,5 5,9 75,0 6,3 51 - 1,6 39 1.026,9
17:44 7,8 3,5 5,9 74,0 7,1 59 - 1,4 41 1.026,8
17:43 7,8 3,6 6,0 74,8 7,9 64 - 1,4 44 1.026,7
17:42 7,9 3,5 6,0 73,7 7,7 67 - 1,4 48 1.026,7
17:41 8,0 3,5 6,0 73,0 7,6 68 - 1,4 53 1.026,7
17:40 8,2 3,8 6,3 73,6 8,1 68 12,1 1,4 71 1.026,6
17:39 8,3 3,8 6,3 73,3 8,1 69 13,9 1,4 75 1.026,7
17:38 8,4 3,7 6,3 72,1 7,8 71 - 1,4 87 1.026,6
17:37 8,6 3,8 6,5 71,8 7,2 73 - 1,4 97 1.026,6
17:36 8,7 3,7 6,5 71,0 7,8 74 - 1,4 100 1.026,6
17:35 8,9 3,8 6,6 70,5 7,7 76 - 1,4 100 1.026,6
17:34 9,1 3,9 6,8 70,0 7,2 78 - 1,4 98 1.026,5
17:33 9,3 4,3 7,0 70,8 6,8 80 - 1,4 99 1.026,5
17:32 9,5 4,7 7,3 72,0 6,2 83 - 1,4 104 1.026,5
17:31 9,5 4,9 7,4 72,8 4,8 88 - 1,4 121 1.026,5
17:30 9,5 4,6 7,3 71,7 4,1 95 - 1,4 159 1.026,4
17:29 9,4 4,4 7,2 71,0 4,2 105 - 1,4 197 1.026,4
17:28 9,4 4,3 7,1 70,4 3,2 111 - 1,4 250 1.026,4
17:27 9,4 3,9 6,9 68,4 1,5 110 - 1,4 298 1.026,3
17:26 9,5 3,7 6,9 67,1 0,6 104 - 1,4 263 1.026,4
17:25 9,6 3,8 7,0 67,0 2,8 99 - 1,4 267 1.026,4
17:24 9,7 4,0 7,1 67,4 5,6 97 - 1,4 223 1.026,4
17:23 9,7 4,1 7,1 68,0 5,1 96 - 1,4 204 1.026,4
17:22 9,7 4,0 7,1 67,4 4,8 98 - 1,4 192 1.026,4
17:21 9,7 3,9 7,1 67,0 4,9 99 - 1,4 184 1.026,4
17:20 9,8 4,0 7,1 67,0 5,0 99 - 1,4 175 1.026,3
17:19 9,8 3,9 7,1 66,8 5,6 97 - 1,4 173 1.026,3
17:18 9,9 3,9 7,2 66,4 6,4 92 9,8 1,4 174 1.026,2
17:17 10,0 4,2 7,3 67,0 6,0 84 - 1,4 174 1.026,3
17:16 10,0 4,2 7,3 67,0 4,9 72 - 1,4 180 1.026,2
17:15 10,1 4,2 7,4 67,0 3,9 56 - 1,4 189 1.026,2
17:14 10,1 4,2 7,4 67,0 4,2 39 - 1,4 199 1.026,2
17:13 10,1 4,2 7,4 67,0 4,3 26 - 1,4 208 1.026,2
17:12 10,2 4,3 7,5 67,0 3,6 19 - 1,4 215 1.026,3
17:11 10,2 4,3 7,5 67,0 3,2 17 - 1,4 234 1.026,1
17:10 10,1 4,2 7,4 66,6 3,1 16 - 1,4 258 1.026,2
17:09 10,1 4,1 7,4 66,4 3,6 13 - 1,4 258 1.026,2
17:08 10,1 4,2 7,4 66,9 4,0 8 - 1,4 286 1.026,2
17:07 10,1 4,1 7,3 66,3 4,7 2 - 1,4 313 1.026,2
17:06 10,0 4,2 7,3 67,0 5,0 356 - 1,4 313 1.026,2
17:05 10,0 4,3 7,4 67,6 4,9 349 - 1,4 385 1.026,2
17:04 10,0 4,2 7,4 67,3 4,7 344 - 1,4 485 1.026,2
17:03 10,2 4,3 7,5 67,0 5,0 341 - 1,4 473 1.026,1
17:02 10,2 4,3 7,5 66,7 5,1 339 - 1,4 482 1.026,1
17:01 10,2 3,9 7,3 65,0 5,1 338 - 1,4 512 1.026,1
17:00 10,3 4,1 7,5 65,5 5,0 339 - 1,4 541 1.026,1
 
16:59 10,3 4,2 7,5 66,0 4,8 341 - 1,4 549 1.026,1
16:58 10,2 4,1 7,4 66,0 4,9 343 - 1,4 567 1.026,1
16:57 10,1 3,9 7,2 65,2 5,4 344 - 1,4 571 1.026,1
16:56 10,1 4,1 7,3 66,2 5,7 345 - 1,4 570 1.026,0
16:55 10,0 4,2 7,3 67,0 5,5 344 - 1,4 565 1.026,0
16:54 10,0 4,2 7,3 67,0 5,4 341 - 1,4 558 1.026,0
16:53 9,9 4,2 7,3 67,6 5,6 338 - 1,4 550 1.026,0
16:52 9,9 4,3 7,3 68,0 5,7 335 - 1,4 539 1.026,0
16:51 9,8 4,0 7,2 67,1 5,6 333 - 1,4 527 1.026,0
16:50 9,8 3,8 7,1 66,2 5,5 332 - 1,4 517 1.026,0
16:49 9,8 4,0 7,1 67,0 5,5 332 - 1,4 510 1.026,0
16:48 9,7 3,9 7,1 67,0 5,6 333 - 1,4 505 1.026,1
16:47 9,6 3,8 7,0 67,0 5,5 333 - 1,4 501 1.026,0
16:46 9,4 3,9 6,9 68,6 5,4 333 - 1,4 499 1.026,0
16:45 9,3 3,9 6,9 69,0 5,5 331 - 1,4 497 1.026,0
16:44 9,3 3,9 6,9 69,2 5,7 329 - 1,4 496 1.026,0
16:43 9,3 4,2 7,0 70,4 5,8 327 - 1,4 496 1.026,0
16:42 9,3 4,3 7,1 71,0 5,7 325 - 1,4 497 1.026,0
16:41 9,4 4,4 7,2 71,0 5,6 322 - 1,4 499 1.026,1
16:40 9,3 4,3 7,1 71,0 5,7 320 - 1,4 500 1.026,1
16:39 9,4 4,4 7,2 71,0 5,2 319 - 1,4 499 1.026,1
16:38 9,3 4,3 7,0 70,8 4,9 318 - 1,4 496 1.026,1
16:37 9,3 4,2 7,0 70,4 4,9 318 - 1,4 500 1.026,0
16:36 9,3 4,3 7,1 71,0 5,4 318 - 1,4 501 1.026,1
16:35 9,3 4,2 7,0 70,3 5,3 319 - 1,4 503 1.026,1
16:34 9,4 4,2 7,1 70,0 5,3 321 - 1,4 504 1.026,2
16:33 9,4 4,2 7,1 70,1 5,5 322 - 1,4 506 1.026,1
16:32 9,4 4,4 7,2 71,0 5,9 325 - 1,4 510 1.026,1
16:31 9,4 4,5 7,2 71,4 6,0 330 - 1,4 513 1.026,1
16:30 9,3 4,4 7,1 71,5 5,9 335 - 1,4 517 1.026,1
16:29 9,2 4,2 7,0 71,0 5,4 338 - 1,4 522 1.026,1
16:28 9,1 4,1 6,9 71,0 5,6 338 - 1,4 523 1.026,1
16:27 9,1 4,3 7,0 72,1 5,6 337 - 1,4 527 1.026,1
16:26 9,1 4,5 7,1 73,0 5,7 335 - 1,4 530 1.026,1
16:25 9,0 4,3 6,9 72,6 5,6 332 - 1,4 533 1.026,1
16:24 9,0 4,2 6,9 72,0 5,7 330 - 1,4 540 1.026,1
16:23 9,0 4,2 6,9 72,0 6,0 329 - 1,4 542 1.026,1
16:22 9,0 4,4 7,0 72,9 6,0 330 - 1,4 548 1.026,1
16:21 8,9 4,3 6,9 73,0 5,9 332 - 1,4 555 1.026,1
16:20 8,9 4,4 6,9 73,3 5,8 333 - 1,4 562 1.026,1
16:19 8,7 4,2 6,7 73,6 6,1 334 - 1,4 573 1.026,1
16:18 8,5 3,9 6,5 73,0 6,4 333 - 1,4 582 1.026,1
16:17 8,5 3,8 6,4 72,3 6,6 332 - 1,4 439 1.026,1
16:16 8,6 3,8 6,5 72,0 6,7 332 - 1,4 227 1.026,1
16:15 8,7 3,9 6,6 72,0 7,0 332 - 1,4 216 1.026,1
16:14 8,8 4,0 6,7 72,0 7,0 334 - 1,4 251 1.026,1
16:13 9,0 4,2 6,9 72,0 6,9 337 - 1,4 276 1.026,1
16:12 9,1 4,3 7,0 72,0 6,4 339 - 1,4 315 1.026,1
16:11 9,2 4,3 7,0 71,3 6,5 341 - 1,4 661 1.026,1
16:10 9,2 4,0 6,9 70,1 6,2 343 - 1,4 661 1.026,1
16:09 9,3 4,1 7,0 70,0 6,5 344 - 1,4 661 1.026,1
16:08 9,3 4,1 7,0 70,0 6,6 344 - 1,4 648 1.026,1
16:07 9,4 4,2 7,1 70,0 6,7 346 - 1,4 624 1.026,1
16:06 9,4 4,3 7,1 70,7 6,3 349 - 1,4 621 1.026,1
16:05 9,4 4,4 7,2 71,0 6,2 353 - 1,4 548 1.026,1
16:04 9,3 4,2 7,0 70,7 6,5 356 - 1,4 336 1.026,1
16:03 9,3 4,1 7,0 70,0 7,0 357 - 1,4 336 1.026,1
16:02 9,3 4,1 7,0 70,0 7,0 356 - 1,4 336 1.026,1
16:01 9,3 4,0 6,9 69,5 7,0 354 - 1,4 336 1.026,1
16:00 9,3 3,8 6,8 68,4 7,1 352 - 1,4 336 1.026,1
 
15:59 9,4 3,8 6,9 68,0 7,3 351 - 1,4 290 1.026,2
15:58 9,6 3,8 7,0 67,0 7,3 351 - 1,4 160 1.026,2
15:57 9,8 3,7 7,0 66,0 7,4 352 - 1,4 160 1.026,1
15:56 10,0 3,9 7,2 65,6 7,5 353 - 1,4 562 1.026,1
15:55 10,1 3,7 7,2 64,5 7,2 353 - 1,4 696 1.026,1
15:54 10,1 3,8 7,2 64,9 6,2 352 - 1,4 696 1.026,0
15:53 10,1 3,6 7,1 64,2 5,6 350 - 1,4 699 1.026,1
15:52 10,1 3,6 7,1 64,2 5,3 348 - 1,4 706 1.026,1
15:51 10,2 3,8 7,3 64,4 5,3 346 - 1,4 699 1.026,1
15:50 10,2 3,6 7,2 63,8 5,2 346 - 1,4 687 1.026,1
15:49 10,2 3,9 7,3 65,0 4,9 348 - 1,4 669 1.026,1
15:48 10,2 3,9 7,3 65,0 4,3 351 - 1,4 653 1.026,1
15:47 10,0 3,7 7,1 65,0 4,2 354 - 1,4 643 1.026,1
15:46 10,0 3,6 7,1 64,4 5,2 357 - 1,4 627 1.026,1
15:45 10,0 3,9 7,2 66,0 5,5 358 - 1,4 621 1.026,1
15:44 9,9 4,0 7,2 66,5 5,2 359 - 1,4 622 1.026,1
15:43 9,8 4,0 7,1 67,0 5,0 357 - 1,4 619 1.026,1
15:42 9,7 4,0 7,1 67,8 5,1 355 - 1,4 617 1.026,1
15:41 9,6 3,8 7,0 67,1 5,0 352 - 1,4 617 1.026,1
15:40 9,6 3,8 7,0 67,0 5,0 350 - 1,4 624 1.026,0
15:39 9,6 3,8 7,0 67,0 5,1 348 - 1,4 636 1.026,1
15:38 9,6 3,9 7,0 67,5 5,3 347 - 1,4 314 1.026,1
15:37 9,7 4,2 7,2 68,6 5,1 349 - 1,4 226 1.026,1
15:36 9,7 4,4 7,3 69,8 4,6 351 - 1,4 183 1.026,1
15:35 9,7 4,5 7,3 70,0 3,8 352 - 1,4 374 1.026,1
15:34 9,8 4,6 7,4 70,0 4,5 353 - 1,4 631 1.026,0
15:33 9,8 4,6 7,4 70,0 5,0 354 - 1,4 631 1.026,0
15:32 9,8 4,6 7,4 70,0 6,1 355 - 1,4 691 1.026,0
15:31 9,8 4,5 7,4 69,4 5,7 354 - 1,4 346 1.026,0
15:30 9,9 4,5 7,4 69,0 5,4 353 - 1,4 344 1.026,0
15:29 10,0 4,6 7,5 69,1 5,6 352 - 1,4 394 1.026,0
15:28 10,1 4,9 7,7 70,0 5,8 353 - 1,4 396 1.026,0
15:27 10,2 5,0 7,8 70,0 5,9 355 - 1,4 676 1.026,0
15:26 10,1 5,0 7,8 70,5 5,9 358 - 1,4 796 1.026,0
15:25 10,1 5,1 7,8 71,0 4,8 359 - 1,4 769 1.026,0
15:24 10,2 5,0 7,8 70,1 4,8 0 - 1,4 768 1.026,0
15:23 10,1 4,7 7,6 69,1 4,9 1 - 1,4 757 1.026,0
15:22 10,0 4,6 7,6 69,3 5,4 0 - 1,4 744 1.026,0
15:21 9,9 4,8 7,6 70,4 5,4 358 - 1,4 733 1.026,0
15:20 9,9 4,7 7,6 70,3 5,2 355 - 1,4 731 1.026,0
15:19 9,9 4,6 7,5 69,4 5,2 355 - 1,4 702 1.026,0
15:18 9,8 4,6 7,4 70,0 5,2 356 - 1,4 697 1.026,1
15:17 9,8 4,6 7,4 70,0 5,2 359 - 1,4 687 1.026,0
15:16 9,8 4,6 7,5 70,3 5,1 1 - 1,4 677 1.026,0
15:15 9,7 4,7 7,4 71,0 4,7 3 - 1,4 664 1.026,0
15:14 9,7 4,9 7,5 72,1 4,5 4 - 1,4 651 1.026,0
15:13 9,7 5,2 7,7 73,7 4,1 1 - 1,4 653 1.026,1
15:12 9,4 4,8 7,4 73,2 4,0 355 - 1,4 656 1.026,1
15:11 9,3 4,7 7,2 73,0 3,9 349 - 1,4 578 1.026,0
15:10 9,3 4,7 7,2 73,0 4,8 343 - 1,4 482 1.026,1
15:09 9,2 4,5 7,1 72,6 5,5 338 - 1,4 482 1.026,0
15:08 9,2 4,6 7,1 72,7 5,9 335 - 1,4 482 1.026,0
15:07 9,2 4,6 7,1 72,9 5,9 336 - 1,4 482 1.026,0
15:06 9,2 4,4 7,1 72,1 5,6 339 - 1,4 504 1.026,0
15:05 9,2 4,5 7,1 72,3 5,3 341 - 1,4 531 1.026,1
15:04 9,1 4,7 7,1 73,7 5,2 343 - 1,4 531 1.026,1
15:03 9,0 4,3 6,9 72,6 5,2 343 - 1,4 520 1.026,1
15:02 9,0 4,2 6,9 72,0 5,5 342 - 1,4 358 1.026,0
15:01 9,1 4,3 7,0 72,0 5,9 341 - 1,4 350 1.026,1
15:00 9,1 4,3 6,9 71,8 5,8 340 - 1,4 350 1.026,1
 
14:59 9,1 4,1 6,9 71,0 5,5 339 - 1,4 389 1.026,0
14:58 9,1 4,1 6,9 71,0 5,1 339 - 1,4 432 1.026,1
14:57 9,2 4,1 6,9 70,6 4,8 338 - 1,4 362 1.026,1
14:56 9,2 4,0 6,9 70,0 4,8 337 - 1,4 345 1.026,1
14:55 9,1 3,8 6,7 69,3 4,8 335 - 1,4 345 1.026,1
14:54 9,1 3,7 6,7 69,0 4,5 334 - 1,4 333 1.026,1
14:53 9,1 3,5 6,6 68,0 4,3 333 - 1,4 314 1.026,1
14:52 9,2 3,6 6,7 68,0 3,9 334 - 1,4 332 1.026,2
14:51 9,1 3,5 6,6 68,0 3,7 336 - 1,4 353 1.026,1
14:50 9,0 3,4 6,5 68,0 3,4 339 - 1,4 355 1.026,1
14:49 9,0 3,4 6,5 68,0 3,5 342 - 1,4 355 1.026,2
14:48 9,0 3,5 6,5 68,3 3,5 345 - 1,4 321 1.026,2
14:47 9,0 3,6 6,6 69,0 3,3 349 - 1,4 261 1.026,2
14:46 9,0 3,6 6,6 69,0 2,7 355 - 1,4 226 1.026,2
14:45 8,9 3,5 6,5 69,0 2,1 3 - 1,4 214 1.026,2
14:44 8,9 3,5 6,5 69,0 1,9 11 - 1,4 196 1.026,1
14:43 8,9 3,7 6,6 69,8 2,1 13 - 1,4 179 1.026,1
14:42 8,8 3,4 6,4 69,1 2,4 11 - 1,4 169 1.026,2
14:41 8,8 3,4 6,4 69,0 2,5 5 - 1,4 163 1.026,2
14:40 8,8 3,4 6,4 69,0 3,0 358 - 1,4 158 1.026,1
14:39 8,8 3,4 6,4 69,0 3,3 353 - 1,4 155 1.026,2
14:38 8,8 3,4 6,4 69,0 3,2 350 - 1,4 151 1.026,1
14:37 8,8 3,4 6,4 69,0 3,3 350 - 1,4 150 1.026,2
14:36 8,9 3,5 6,5 69,0 3,4 352 - 1,4 150 1.026,2
14:35 8,9 3,5 6,5 69,0 3,3 357 - 1,4 152 1.026,1
14:34 8,9 3,5 6,5 69,0 2,7 2 - 1,4 155 1.026,2
14:33 8,9 3,5 6,5 69,0 2,1 6 - 1,4 158 1.026,2
14:32 8,9 3,5 6,5 69,0 2,3 9 - 1,4 163 1.026,1
14:31 9,0 3,6 6,6 69,0 2,4 12 - 1,4 168 1.026,1
14:30 9,1 3,7 6,7 69,1 2,4 13 - 1,4 173 1.026,1
14:29 9,1 3,9 6,8 70,0 2,4 15 - 1,4 180 1.026,1
14:28 9,0 3,8 6,7 70,0 2,4 19 - 1,4 189 1.026,1
14:27 9,1 3,9 6,8 70,0 2,5 23 - 1,4 199 1.026,1
14:26 9,1 4,1 6,8 70,7 2,5 24 - 1,4 207 1.026,1
14:25 9,1 4,1 6,9 71,0 2,8 21 - 1,4 216 1.026,1
14:24 9,1 4,1 6,9 71,0 2,5 17 - 1,4 223 1.026,1
14:23 9,1 4,1 6,8 70,7 2,5 10 - 1,4 226 1.026,1
14:22 9,1 3,9 6,8 70,0 2,5 3 - 1,4 227 1.026,1
14:21 9,1 3,9 6,8 70,0 2,4 356 - 1,4 227 1.026,1
14:20 9,0 3,7 6,6 69,3 2,9 351 - 1,4 225 1.026,1
14:19 9,0 3,6 6,6 69,0 3,7 347 - 1,4 224 1.026,1
14:18 9,0 3,6 6,6 69,0 4,1 343 - 1,4 225 1.026,0
14:17 9,1 3,7 6,7 69,0 4,3 341 - 1,4 234 1.026,1
14:16 9,1 3,7 6,7 69,0 4,5 339 - 1,4 241 1.026,0
14:15 9,2 3,8 6,8 69,0 4,4 338 - 1,4 246 1.026,0
14:14 9,3 3,9 6,9 69,0 4,6 338 - 1,4 253 1.026,0
14:13 9,4 4,0 7,0 69,0 4,7 341 - 1,4 264 1.026,0
14:12 9,5 4,1 7,1 69,0 4,5 343 - 1,4 593 1.026,0
14:11 9,6 4,2 7,2 69,0 4,4 344 - 1,4 912 1.026,1
14:10 9,6 4,5 7,3 70,3 4,2 345 - 1,4 912 1.026,0
14:09 9,6 4,5 7,3 70,4 4,1 346 - 1,4 911 1.026,0
14:08 9,6 4,4 7,2 70,0 3,6 348 - 1,4 897 1.026,0
14:07 9,6 4,4 7,2 70,0 3,1 351 - 1,4 883 1.026,0
14:06 9,3 4,2 7,0 70,3 2,7 354 - 1,4 864 1.026,1
14:05 9,2 4,2 7,0 71,0 2,9 357 - 1,4 843 1.026,1
14:04 9,2 4,2 7,0 71,0 2,8 359 - 1,4 818 1.026,1
14:03 9,1 4,1 6,9 71,0 2,9 0 - 1,4 795 1.026,1
14:02 8,9 3,9 6,7 71,0 3,1 0 - 1,4 646 1.026,1
14:01 8,8 3,8 6,6 71,0 3,6 359 - 1,4 227 1.026,1
14:00 8,6 3,7 6,4 71,2 4,0 356 - 1,4 230 1.026,1
 
13:59 8,7 3,9 6,6 72,0 4,3 352 - 1,4 689 1.026,1
13:58 8,6 3,8 6,5 72,0 4,3 347 - 1,4 900 1.026,1
13:57 8,5 3,7 6,4 72,0 4,5 342 - 1,4 900 1.026,0
13:56 8,4 3,6 6,3 72,0 4,8 337 - 1,4 890 1.026,1
13:55 8,4 3,6 6,3 72,0 4,6 332 - 1,4 866 1.026,1
13:54 8,4 3,6 6,3 72,0 4,6 330 - 1,4 857 1.026,1
13:53 8,4 3,6 6,3 72,0 4,8 330 - 1,4 858 1.026,1
13:52 8,4 3,6 6,3 72,0 4,7 332 - 1,4 860 1.026,1
13:51 8,4 3,8 6,4 72,7 4,2 334 - 1,4 858 1.026,1
13:50 8,3 3,7 6,3 73,0 4,2 336 - 1,4 850 1.026,2
13:49 8,2 3,6 6,2 72,7 4,4 338 - 1,4 845 1.026,1
13:48 8,1 3,4 6,0 72,3 4,6 338 - 1,4 447 1.026,1
13:47 8,1 3,6 6,1 73,0 4,5 339 - 1,4 183 1.026,1
13:46 8,1 3,4 6,0 72,3 4,5 340 - 1,4 182 1.026,1
13:45 8,1 3,4 6,0 72,0 4,6 342 - 1,4 194 1.026,1
13:44 8,2 3,3 6,0 71,2 4,2 345 - 1,4 167 1.026,2
13:43 8,2 3,3 6,0 71,0 4,1 348 - 1,4 157 1.026,2
13:42 8,2 3,3 6,0 71,0 4,3 350 - 1,4 145 1.026,1
13:41 8,2 3,4 6,1 71,5 4,7 350 - 1,4 135 1.026,1
13:40 8,3 3,4 6,2 71,4 4,7 349 - 1,4 128 1.026,1
13:39 8,4 3,4 6,2 71,0 4,6 345 - 1,4 126 1.026,1
13:38 8,4 3,6 6,3 71,7 4,5 342 - 1,4 366 1.026,1
13:37 8,5 3,5 6,3 71,0 4,4 339 - 1,4 805 1.026,1
13:36 8,6 3,6 6,4 71,0 4,5 337 - 1,4 805 1.026,1
13:35 8,5 3,5 6,3 71,0 4,5 337 - 1,4 818 1.026,1
13:34 8,6 3,8 6,5 71,6 3,8 339 - 1,4 819 1.026,1
13:33 8,3 3,4 6,1 71,3 2,7 345 - 1,4 796 1.026,1
13:32 8,1 3,2 5,9 71,0 2,0 356 - 1,4 789 1.026,1
13:31 8,0 3,1 5,9 71,2 2,0 8 - 1,4 768 1.026,1
13:30 8,0 3,3 6,0 72,4 2,2 17 - 1,4 393 1.026,2
13:29 7,9 3,3 5,9 72,5 2,6 21 - 1,4 237 1.026,2
13:28 7,9 3,2 5,8 72,0 2,6 21 - 1,4 226 1.026,2
13:27 7,9 3,2 5,8 72,0 2,8 20 - 1,4 127 1.026,2
13:26 7,9 3,0 5,8 71,1 3,2 19 - 1,4 127 1.026,2
13:25 7,9 3,0 5,7 71,0 3,3 20 - 1,4 114 1.026,2
13:24 8,0 3,1 5,8 71,0 3,3 22 - 1,4 94 1.026,2
13:23 8,1 3,2 5,9 71,0 3,1 25 - 1,4 85 1.026,2
13:22 8,2 3,1 6,0 70,4 2,7 29 - 1,4 92 1.026,1
13:21 8,2 3,3 6,0 71,0 2,5 31 - 1,4 273 1.026,2
13:20 8,1 3,3 6,0 71,9 2,4 33 - 1,4 671 1.026,2
13:19 8,0 3,1 5,8 71,0 2,5 34 - 1,4 671 1.026,3
13:18 7,9 3,0 5,7 71,0 2,8 36 - 1,4 671 1.026,3
13:17 7,9 3,1 5,8 71,7 3,3 37 - 1,4 231 1.026,2
13:16 7,9 3,2 5,8 72,0 3,7 38 - 1,4 153 1.026,3
13:15 7,8 2,9 5,7 71,2 3,6 40 - 1,4 153 1.026,2
13:14 7,8 2,8 5,6 70,9 3,5 41 - 1,4 153 1.026,2
13:13 7,8 2,7 5,6 70,0 3,6 43 - 1,4 148 1.026,2
13:12 7,8 2,7 5,6 70,0 4,2 44 - 1,4 144 1.026,2
13:11 7,8 2,7 5,6 70,0 4,5 44 - 1,4 144 1.026,2
13:10 7,9 2,9 5,7 70,7 4,6 43 - 1,4 143 1.026,2
13:09 8,0 3,1 5,8 71,0 4,5 40 - 1,4 303 1.026,2
13:08 8,0 3,2 5,9 71,8 4,5 35 - 1,4 689 1.026,2
13:07 7,9 3,0 5,8 71,3 4,3 29 - 1,4 689 1.026,1
13:06 7,9 3,2 5,8 72,0 3,7 25 - 1,4 689 1.026,1
13:05 7,9 3,2 5,8 72,0 3,7 24 - 1,4 689 1.026,1
13:04 7,8 3,2 5,8 72,7 3,6 24 - 1,4 689 1.026,2
13:03 7,8 3,3 5,8 73,0 3,5 23 - 1,4 689 1.026,2
13:02 7,7 3,2 5,7 73,0 3,8 20 - 1,4 702 1.026,2
13:01 7,7 3,2 5,7 73,0 3,7 14 - 1,4 371 1.026,2
13:00 7,6 3,1 5,6 73,0 4,2 6 - 1,4 186 1.026,1
 
12:59 7,6 3,1 5,6 73,0 4,4 358 - 1,4 198 1.026,1
12:58 7,5 3,0 5,5 73,0 4,1 354 - 1,4 745 1.026,1
12:57 7,5 3,0 5,5 73,0 3,8 354 - 1,4 745 1.026,1
12:56 7,4 3,0 5,5 73,4 4,1 357 - 1,4 435 1.026,1
12:55 7,4 3,1 5,5 74,0 4,2 3 - 1,4 125 1.026,1
12:54 7,4 3,1 5,5 74,0 3,7 9 - 1,4 108 1.026,1
12:53 7,4 3,1 5,5 74,0 3,2 14 - 1,4 230 1.026,1
12:52 7,4 2,9 5,5 73,3 3,5 17 - 1,4 237 1.026,1
12:51 7,4 2,9 5,4 73,0 4,2 19 - 1,4 208 1.026,1
12:50 7,5 3,0 5,5 73,0 4,3 20 - 1,4 155 1.026,1
12:49 7,5 2,9 5,5 72,7 3,8 22 - 1,4 130 1.026,1
12:48 7,6 2,9 5,5 72,0 2,9 25 - 1,4 123 1.026,1
12:47 7,6 2,8 5,5 71,4 2,6 30 - 1,4 123 1.026,1
12:46 7,6 2,8 5,5 71,7 2,8 37 - 1,4 127 1.026,0
12:45 7,6 2,7 5,5 71,1 3,4 45 - 1,4 127 1.026,1
12:44 7,6 2,9 5,5 72,0 4,2 51 - 1,4 126 1.026,1
12:43 7,5 2,8 5,5 72,0 4,2 55 - 1,4 125 1.026,1
12:42 7,4 2,7 5,4 72,0 3,9 56 - 1,4 125 1.026,1
12:41 7,4 2,8 5,4 72,7 3,8 57 - 1,4 125 1.026,0
12:40 7,4 2,9 5,4 73,0 3,8 57 - 1,4 125 1.026,0
12:39 7,4 2,9 5,4 73,0 3,6 56 - 1,4 121 1.026,0
12:38 7,4 2,9 5,4 73,0 3,6 55 - 1,4 122 1.026,0
12:37 7,4 2,9 5,4 73,0 3,9 55 - 1,4 127 1.026,0
12:36 7,5 3,1 5,6 73,5 4,0 55 - 1,4 127 1.026,0
12:35 7,5 3,2 5,6 74,0 3,6 54 - 1,4 127 1.026,0
12:34 7,5 3,2 5,6 74,0 3,2 50 - 1,4 172 1.026,0
12:33 7,4 3,1 5,5 74,0 3,1 45 - 1,4 207 1.026,1
12:32 7,3 3,0 5,4 74,0 2,8 40 - 1,4 192 1.026,1
12:31 7,3 2,9 5,4 73,6 2,9 38 - 1,4 192 1.026,1
12:30 7,3 2,8 5,4 73,0 3,0 37 - 1,4 192 1.026,1
12:29 7,4 2,9 5,4 73,0 3,3 37 - 1,4 187 1.026,1
12:28 7,5 3,0 5,5 73,0 3,9 39 - 1,4 179 1.026,0
12:27 7,6 3,1 5,6 73,0 3,9 43 - 1,4 412 1.026,0
12:26 7,6 3,1 5,6 73,0 3,6 47 - 1,4 675 1.026,0
12:25 7,6 3,1 5,7 73,4 3,7 50 - 1,4 675 1.026,0
12:24 7,6 3,3 5,7 74,0 3,9 51 - 1,4 671 1.026,0
12:23 7,5 3,2 5,6 74,0 3,8 50 - 1,4 207 1.026,0
12:22 7,3 3,0 5,4 74,0 3,9 48 - 1,4 207 1.026,0
12:21 7,4 3,1 5,5 74,0 3,6 45 - 1,4 509 1.026,0
12:20 7,4 3,1 5,5 74,0 3,1 40 - 1,4 810 1.026,0
12:19 7,4 3,0 5,5 73,6 2,6 34 - 1,4 375 1.026,0
12:18 7,4 2,9 5,4 73,0 2,7 30 - 1,4 229 1.026,0
12:17 7,6 2,9 5,6 72,3 2,9 29 - 1,4 208 1.026,1
12:16 7,7 3,0 5,6 72,0 3,1 31 - 1,4 210 1.026,0
12:15 7,7 3,1 5,7 72,8 3,2 36 - 1,4 223 1.026,1
12:14 7,7 3,0 5,6 72,0 3,1 43 - 1,4 219 1.026,1
12:13 7,7 3,0 5,6 72,0 2,8 50 - 1,4 266 1.026,1
12:12 7,7 3,0 5,6 72,0 3,6 55 - 1,4 183 1.026,1
12:11 7,7 2,8 5,6 71,1 4,8 58 - 1,4 178 1.026,1
12:10 7,9 3,0 5,8 71,1 4,8 58 - 1,4 175 1.026,0
12:09 8,0 3,3 5,9 72,2 4,6 58 - 1,4 523 1.026,0
12:08 8,0 3,5 6,0 73,0 4,7 58 - 1,4 874 1.026,0
12:07 8,0 3,5 6,0 73,0 5,1 58 - 1,4 874 1.026,0
12:06 7,9 3,2 5,9 72,4 5,1 58 - 1,4 867 1.026,0
12:05 8,0 3,3 5,9 72,0 4,5 58 - 1,4 809 1.026,0
12:04 8,2 3,5 6,1 72,0 3,9 58 - 1,4 803 1.026,0
12:03 8,4 3,7 6,3 72,3 3,2 58 - 1,4 764 1.026,0
12:02 8,5 3,9 6,5 73,0 2,7 57 - 1,4 812 1.026,0
12:01 8,4 3,8 6,4 73,0 2,0 57 - 1,4 816 1.026,0
12:00 8,5 3,9 6,5 73,0 2,0 59 - 1,4 817 1.026,1
 
11:59 8,4 4,0 6,5 73,8 2,6 63 - 1,4 824 1.026,0
11:58 8,3 4,1 6,5 74,9 2,8 70 - 1,4 826 1.025,9
11:57 8,2 3,8 6,3 74,0 2,6 77 - 1,4 815 1.026,0
11:56 8,0 3,6 6,1 74,0 2,6 83 - 1,4 798 1.025,9
11:55 7,9 3,6 6,0 74,0 2,8 89 - 1,4 790 1.025,9
11:54 7,8 3,6 6,0 74,7 2,7 93 - 1,4 783 1.025,9
11:53 7,8 3,6 6,0 75,0 2,9 95 - 1,4 790 1.025,9
11:52 7,8 3,9 6,1 76,1 3,4 93 - 1,4 783 1.025,9
11:51 7,7 4,0 6,1 77,3 3,4 87 - 1,4 770 1.025,9
11:50 7,7 4,1 6,2 78,0 2,5 78 - 1,4 779 1.025,9
11:49 7,3 3,6 5,7 77,5 2,1 68 - 1,4 792 1.025,9
11:48 7,0 3,2 5,4 77,0 2,9 58 - 1,4 775 1.025,8
11:47 7,0 3,2 5,4 77,0 3,7 49 - 1,4 760 1.025,8
11:46 7,0 3,2 5,4 77,0 3,9 45 - 1,4 762 1.025,8
11:45 7,1 3,4 5,5 77,3 3,8 42 - 1,4 809 1.025,9
11:44 7,0 3,4 5,5 78,0 3,6 40 - 1,4 838 1.025,8
11:43 6,9 3,2 5,3 77,5 3,5 38 - 1,4 837 1.025,8
11:42 6,7 3,0 5,1 77,0 3,4 38 - 1,4 818 1.025,8
11:41 6,7 3,0 5,1 77,0 3,6 40 - 1,4 603 1.025,8
11:40 6,8 3,0 5,2 77,0 3,4 43 - 1,4 246 1.025,8
11:39 6,8 3,0 5,2 77,0 3,4 46 - 1,4 225 1.025,8
11:38 6,8 3,0 5,2 77,0 3,3 48 - 1,4 214 1.025,8
11:37 6,7 3,0 5,1 77,0 3,1 50 - 1,4 214 1.025,8
11:36 6,7 3,1 5,2 77,7 2,9 50 - 1,4 214 1.025,9
11:35 6,6 2,9 5,0 77,2 3,4 49 - 1,4 214 1.025,9
11:34 6,5 2,9 5,0 77,8 3,8 49 - 1,4 214 1.025,9
11:33 6,4 2,7 4,8 77,0 3,8 48 - 1,4 214 1.025,8
11:32 6,4 2,7 4,8 77,0 4,0 47 - 1,4 214 1.025,7
11:31 6,4 2,7 4,8 77,0 4,3 48 - 1,4 214 1.025,7
11:30 6,4 2,7 4,8 77,0 4,2 50 - 1,4 208 1.025,8
11:29 6,3 2,6 4,7 77,0 4,0 53 - 1,4 198 1.025,8
11:28 6,3 2,6 4,7 77,0 4,3 57 - 1,4 211 1.025,7
11:27 6,4 2,7 4,8 77,0 4,6 61 - 1,4 211 1.025,7
11:26 6,4 2,7 4,8 77,0 4,1 65 - 1,4 211 1.025,7
11:25 6,4 2,8 4,9 77,6 3,8 69 - 1,4 198 1.025,8
11:24 6,4 2,7 4,8 77,3 3,8 71 - 1,4 197 1.025,7
11:23 6,4 2,8 4,9 77,7 3,7 71 - 1,4 204 1.025,7
11:22 6,3 2,6 4,7 77,0 3,6 69 - 1,4 204 1.025,7
11:21 6,3 2,6 4,7 77,0 3,4 67 - 1,4 208 1.025,7
11:20 6,3 2,6 4,7 77,0 3,6 67 - 1,4 199 1.025,7
11:19 6,3 2,6 4,7 77,0 4,2 66 - 1,4 281 1.025,7
11:18 6,3 2,6 4,7 77,0 4,6 66 - 1,4 285 1.025,7
11:17 6,3 2,6 4,7 77,0 4,7 64 - 1,4 248 1.025,7
11:16 6,3 2,6 4,7 77,2 4,5 64 - 1,4 176 1.025,6
11:15 6,3 2,7 4,8 78,0 4,4 64 - 1,4 164 1.025,6
11:14 6,3 2,7 4,8 78,0 4,1 64 - 1,4 174 1.025,6
11:13 6,3 2,7 4,8 78,0 3,8 64 - 1,4 191 1.025,6
11:12 6,3 2,7 4,8 78,0 3,3 63 - 1,4 202 1.025,6
11:11 6,2 2,6 4,7 78,0 3,0 64 - 1,4 203 1.025,6
11:10 6,2 2,6 4,7 78,0 3,5 66 - 1,4 203 1.025,6
11:09 6,2 2,6 4,7 78,0 4,3 68 - 1,4 209 1.025,6
11:08 6,1 2,6 4,6 78,0 4,0 70 - 1,4 201 1.025,6
11:07 6,1 2,6 4,6 78,0 3,6 72 - 1,4 182 1.025,6
11:06 6,0 2,5 4,5 78,0 3,2 76 - 1,4 175 1.025,7
11:05 6,0 2,5 4,5 78,0 3,0 78 - 1,4 150 1.025,7
11:04 6,0 2,5 4,5 78,0 3,6 76 - 1,4 127 1.025,6
11:03 6,0 2,4 4,5 77,6 4,0 71 - 1,4 115 1.025,6
11:02 6,1 2,5 4,6 77,6 3,8 65 - 1,4 114 1.025,6
11:01 6,1 2,6 4,6 78,0 3,7 59 - 1,4 116 1.025,7
11:00 6,1 2,6 4,6 78,0 3,8 56 - 1,4 114 1.025,6
 
10:59 6,1 2,6 4,6 78,0 4,2 55 - 1,4 112 1.025,6
10:58 6,1 2,6 4,6 78,0 4,4 56 - 1,4 110 1.025,6
10:57 6,1 2,6 4,6 78,0 4,4 59 - 1,4 111 1.025,6
10:56 6,1 2,6 4,6 78,0 4,2 61 - 1,4 125 1.025,6
10:55 6,2 2,5 4,7 77,3 4,1 62 - 1,4 102 1.025,5
10:54 6,2 2,5 4,6 77,0 4,2 60 - 1,4 102 1.025,6
10:53 6,2 2,5 4,6 77,0 4,2 56 - 1,4 95 1.025,6
10:52 6,3 2,6 4,7 77,0 4,1 50 - 1,4 100 1.025,6
10:51 6,4 2,7 4,8 77,0 3,8 45 - 1,4 112 1.025,6
10:50 6,5 2,9 5,0 77,6 4,3 42 - 1,4 126 1.025,6
10:49 6,6 3,0 5,1 78,0 4,5 39 - 1,4 152 1.025,6
10:48 6,6 2,9 5,0 77,1 4,6 37 - 1,4 206 1.025,5
10:47 6,7 3,0 5,1 77,0 4,0 37 - 1,4 253 1.025,6
10:46 6,8 3,1 5,2 77,4 3,5 37 - 1,4 253 1.025,5
10:45 6,8 3,2 5,3 78,0 3,1 35 - 1,4 253 1.025,5
10:44 6,8 3,2 5,3 78,0 2,6 32 - 1,4 359 1.025,6
10:43 6,7 3,1 5,2 78,0 1,8 31 - 1,4 347 1.025,5
10:42 6,6 3,2 5,2 78,9 2,1 34 - 1,4 275 1.025,5
10:41 6,5 3,1 5,1 79,0 2,6 39 - 1,4 245 1.025,5
10:40 6,4 3,0 5,0 78,7 2,9 42 - 1,4 241 1.025,5
10:39 6,3 2,7 4,8 78,0 3,0 45 - 1,4 237 1.025,4
10:38 6,4 2,8 4,9 78,0 3,1 49 - 1,4 239 1.025,4
10:37 6,4 2,8 4,9 78,0 3,3 51 - 1,4 237 1.025,3
10:36 6,3 2,7 4,8 78,0 3,1 51 - 1,4 215 1.025,4
10:35 6,3 2,7 4,8 78,0 2,8 52 - 1,4 193 1.025,4
10:34 6,2 2,6 4,7 78,0 3,1 55 - 1,4 180 1.025,3
10:33 6,2 2,7 4,7 78,5 3,6 59 - 1,4 168 1.025,3
10:32 6,1 2,7 4,7 79,0 3,5 62 - 1,4 175 1.025,3
10:31 6,0 2,6 4,6 79,0 2,9 65 - 1,4 167 1.025,4
10:30 6,0 2,5 4,5 78,1 1,8 67 - 1,4 145 1.025,3
10:29 5,9 2,4 4,4 78,0 2,0 67 - 1,4 119 1.025,3
10:28 5,9 2,4 4,4 78,0 3,2 66 - 1,4 118 1.025,3
10:27 5,9 2,4 4,4 78,0 4,3 64 - 1,4 139 1.025,3
10:26 5,9 2,4 4,4 78,0 4,3 60 - 1,4 151 1.025,3
10:25 5,9 2,4 4,4 78,0 4,5 57 - 1,4 168 1.025,3
10:24 5,9 2,5 4,5 79,0 4,6 55 - 1,4 169 1.025,2
10:23 5,9 2,5 4,5 79,0 4,5 55 - 1,4 160 1.025,2
10:22 5,9 2,5 4,5 79,0 4,1 55 - 1,4 162 1.025,2
10:21 5,9 2,5 4,5 79,0 3,7 57 - 1,4 150 1.025,2
10:20 5,9 2,5 4,5 79,0 3,2 59 - 1,4 162 1.025,2
10:19 5,9 2,5 4,5 79,0 3,2 60 - 1,4 168 1.025,1
10:18 5,8 2,4 4,4 79,0 3,8 59 - 1,4 150 1.025,1
10:17 5,8 2,4 4,4 79,0 3,9 58 - 1,4 141 1.025,1
10:16 5,8 2,4 4,4 79,0 3,9 59 - 1,4 142 1.025,0
10:15 5,8 2,4 4,4 79,0 3,7 61 - 1,4 134 1.025,0
10:14 5,8 2,4 4,4 79,0 3,3 66 - 1,4 116 1.025,0
10:13 5,7 2,2 4,2 78,1 2,4 75 - 1,4 115 1.025,0
10:12 5,7 2,2 4,2 78,0 2,2 86 - 1,4 93 1.025,0
10:11 5,7 2,2 4,2 78,0 3,2 91 - 1,4 66 1.024,9
10:10 5,6 2,2 4,2 78,5 4,7 92 - 1,4 60 1.024,9
10:09 5,6 2,2 4,2 79,0 5,2 88 - 1,4 84 1.024,9
10:08 5,6 2,2 4,2 79,0 4,9 83 - 1,4 106 1.024,9
10:07 5,6 2,2 4,2 79,0 4,4 77 - 1,4 108 1.024,9
10:06 5,6 2,2 4,2 79,0 4,4 70 - 1,4 111 1.024,9
10:05 5,6 2,2 4,2 79,0 3,9 63 - 1,4 112 1.024,9
10:04 5,6 2,2 4,2 79,0 4,1 59 - 1,4 115 1.024,9
10:03 5,6 2,2 4,2 79,0 4,3 58 - 1,4 99 1.024,8
10:02 5,6 2,1 4,1 78,3 4,5 59 - 1,4 78 1.024,8
10:01 5,6 2,1 4,1 78,0 4,1 60 - 1,4 71 1.024,8
10:00 5,6 2,1 4,1 78,0 3,6 62 - 1,4 72 1.024,8
 
09:59 5,6 2,1 4,1 78,0 3,6 64 - 1,4 70 1.024,7
09:58 5,6 2,2 4,2 78,5 4,1 68 - 1,4 75 1.024,8
09:57 5,6 2,2 4,2 79,0 3,9 73 - 1,4 76 1.024,8
09:56 5,6 2,1 4,1 78,2 3,0 76 - 1,4 68 1.024,8
09:55 5,6 2,1 4,1 78,0 2,9 78 - 1,4 64 1.024,8
09:54 5,6 2,1 4,1 78,2 4,0 79 - 1,4 63 1.024,7
09:53 5,6 2,2 4,2 79,0 4,5 77 - 1,4 66 1.024,7
09:52 5,6 2,2 4,2 79,0 4,2 72 - 1,4 73 1.024,7
09:51 5,6 2,2 4,2 79,0 3,7 68 - 1,4 78 1.024,7
09:50 5,6 2,2 4,2 79,0 4,2 67 - 1,4 85 1.024,6
09:49 5,5 2,1 4,1 79,0 4,4 67 - 1,4 83 1.024,6
09:48 5,5 2,1 4,1 79,0 4,3 67 - 1,4 71 1.024,5
09:47 5,5 2,1 4,1 79,0 4,8 68 - 1,4 67 1.024,5
09:46 5,5 2,1 4,1 79,0 5,3 67 - 1,4 54 1.024,5
09:45 5,5 2,1 4,1 79,0 5,1 65 - 1,4 48 1.024,6
09:44 5,4 2,0 4,0 79,0 4,6 62 - 1,4 52 1.024,5
09:43 5,4 2,0 4,0 79,0 4,3 59 - 1,4 50 1.024,5
09:42 5,4 2,0 4,0 79,0 4,4 58 - 1,4 45 1.024,5
09:41 5,4 2,0 4,0 79,0 4,5 58 - 1,4 43 1.024,4
09:40 5,4 2,2 4,1 79,6 4,8 60 - 1,4 42 1.024,4
09:39 5,4 2,2 4,1 80,0 4,6 61 - 1,4 37 1.024,4
09:38 5,4 2,2 4,1 80,0 3,9 61 - 1,4 35 1.024,4
09:37 5,4 2,2 4,1 80,0 3,8 62 - 1,4 36 1.024,4
09:36 5,4 2,2 4,1 80,0 4,1 65 - 1,4 37 1.024,3
09:35 5,4 2,2 4,1 80,0 4,0 68 - 1,4 36 1.024,3
09:34 5,4 2,2 4,1 80,0 4,0 72 - 1,4 35 1.024,4
09:33 5,4 2,3 4,1 80,7 4,3 75 - 1,4 35 1.024,3
09:32 5,4 2,4 4,2 81,0 4,2 77 - 1,4 35 1.024,3
09:31 5,3 2,3 4,1 81,0 3,5 77 - 1,4 35 1.024,3
09:30 5,3 2,3 4,1 81,0 2,9 75 - 1,4 36 1.024,3
09:29 5,2 2,2 4,0 81,0 2,7 70 - 1,4 39 1.024,3
09:28 5,2 2,2 4,0 81,0 2,2 68 - 1,4 40 1.024,3
09:27 5,2 2,2 4,0 81,0 2,2 72 - 1,4 37 1.024,3
09:26 5,1 2,0 3,8 80,3 2,4 80 - 1,4 37 1.024,3
09:25 5,1 2,1 3,9 81,0 3,3 87 - 1,4 37 1.024,3
09:24 5,1 2,1 3,9 81,0 4,7 93 - 1,4 40 1.024,3
09:23 5,1 2,1 3,9 81,0 5,3 97 - 1,4 40 1.024,2
09:22 5,1 2,1 3,9 81,0 4,4 100 - 1,4 37 1.024,2
09:21 5,1 2,1 3,9 81,0 3,2 99 - 1,4 39 1.024,2
09:20 5,1 2,1 3,9 81,0 3,4 94 - 1,4 39 1.024,1
09:19 5,1 2,1 3,9 81,0 4,7 86 - 1,4 41 1.024,1
09:18 5,1 2,1 3,9 81,0 4,9 79 - 1,4 42 1.024,1
09:17 5,0 2,0 3,8 81,0 4,9 73 - 1,4 40 1.024,1
09:16 5,1 2,2 3,9 81,7 5,2 69 - 1,4 40 1.024,1
09:15 5,0 2,2 3,8 82,0 5,4 68 - 1,4 90 1.024,1
09:14 5,0 2,2 3,8 82,0 5,4 70 - 1,4 221 1.024,1
09:13 5,0 2,2 3,8 82,0 5,0 75 - 1,4 276 1.024,0
09:12 5,0 2,2 3,8 82,0 4,0 81 - 1,4 314 1.024,0
09:11 5,0 2,2 3,8 82,0 3,2 87 - 1,4 318 1.024,1
09:10 4,9 2,1 3,7 82,0 2,6 90 - 1,4 316 1.024,0
09:09 4,9 2,1 3,7 82,0 2,0 93 - 1,4 315 1.024,0
09:08 4,9 2,1 3,7 82,0 1,7 94 - 1,4 314 1.024,0
09:07 4,9 2,1 3,7 82,0 2,6 94 - 1,4 312 1.024,0
09:06 4,8 2,0 3,6 82,0 3,7 93 - 1,4 309 1.024,0
09:05 4,9 2,1 3,7 82,0 4,2 91 - 1,4 306 1.023,9
09:04 4,8 2,0 3,6 82,0 4,0 89 - 1,4 304 1.023,9
09:03 4,8 2,0 3,6 82,0 3,7 86 - 1,4 302 1.023,9
09:02 4,8 2,0 3,6 82,0 3,4 81 - 1,4 300 1.023,9
09:01 4,8 2,0 3,6 82,0 3,2 76 - 1,4 298 1.023,9
09:00 4,8 2,0 3,6 82,0 3,5 71 - 1,4 296 1.023,9
 
08:59 4,8 2,1 3,7 82,5 4,2 68 - 1,4 294 1.023,9
08:58 4,8 2,2 3,7 83,0 4,7 67 - 1,4 291 1.023,8
08:57 4,8 2,2 3,7 83,0 4,8 65 - 1,4 288 1.023,8
08:56 4,8 2,2 3,7 83,0 4,6 64 - 1,4 286 1.023,8
08:55 4,7 2,1 3,6 83,0 4,4 64 - 1,4 284 1.023,8
08:54 4,7 2,1 3,6 83,0 4,0 63 - 1,4 283 1.023,8
08:53 4,7 2,1 3,6 83,0 3,2 64 - 1,4 281 1.023,8
08:52 4,7 2,1 3,6 83,0 2,9 67 - 1,4 278 1.023,8
08:51 4,6 2,0 3,5 83,0 2,8 71 - 1,4 276 1.023,8
08:50 4,7 2,1 3,6 83,0 3,2 75 - 1,4 274 1.023,7
08:49 4,6 2,0 3,5 83,0 3,8 78 - 1,4 271 1.023,7
08:48 4,6 2,0 3,5 83,0 4,3 80 - 1,4 269 1.023,8
08:47 4,6 2,0 3,5 83,0 3,9 82 - 1,4 267 1.023,8
08:46 4,6 2,1 3,6 83,9 3,5 82 - 1,4 265 1.023,8
08:45 4,6 2,1 3,6 84,0 3,5 80 - 1,4 263 1.023,7
08:44 4,6 2,1 3,6 84,0 3,8 78 - 1,4 260 1.023,7
08:43 4,5 2,0 3,5 84,0 3,9 77 - 1,4 257 1.023,7
08:42 4,5 2,0 3,5 84,0 3,9 76 - 1,4 255 1.023,7
08:41 4,5 2,0 3,5 84,0 3,9 73 - 1,4 253 1.023,7
08:40 4,5 2,0 3,5 84,0 4,0 71 - 1,4 251 1.023,6
08:39 4,5 2,0 3,5 84,0 4,4 68 - 1,4 250 1.023,6
08:38 4,5 2,0 3,5 84,0 5,1 67 - 1,4 249 1.023,6
08:37 4,4 2,0 3,4 84,4 5,5 67 - 1,4 245 1.023,6
08:36 4,4 2,1 3,5 85,0 5,0 67 - 1,4 243 1.023,6
08:35 4,4 2,1 3,5 85,0 3,9 67 - 1,4 241 1.023,6
08:34 4,4 2,1 3,5 85,0 3,2 70 - 1,4 238 1.023,6
08:33 4,4 2,1 3,5 85,0 3,4 73 - 1,4 237 1.023,5
08:32 4,3 2,0 3,4 85,0 4,0 76 - 1,4 234 1.023,5
08:31 4,3 2,0 3,4 85,0 4,7 78 - 1,4 231 1.023,5
08:30 4,3 2,0 3,4 85,0 4,9 80 - 1,4 229 1.023,5
08:29 4,3 2,0 3,4 85,0 4,7 81 - 1,4 227 1.023,5
08:28 4,3 2,0 3,4 85,0 4,7 81 - 1,4 222 1.023,4
08:27 4,3 2,0 3,4 85,0 5,0 81 - 1,4 221 1.023,4
08:26 4,2 2,0 3,3 85,3 4,5 80 - 1,4 219 1.023,4
08:25 4,2 2,1 3,3 86,0 3,9 78 - 1,4 217 1.023,4
08:24 4,2 2,1 3,3 86,0 4,0 75 - 1,4 214 1.023,4
08:23 4,2 2,1 3,3 86,0 4,1 74 - 1,4 211 1.023,4
08:22 4,1 2,0 3,2 86,0 3,8 75 - 1,4 208 1.023,4
08:21 4,1 2,0 3,2 86,0 3,3 76 - 1,4 207 1.023,4
08:20 4,0 1,9 3,1 86,0 3,4 77 - 1,4 205 1.023,3
08:19 4,0 1,9 3,1 86,0 3,7 78 - 1,4 203 1.023,4
08:18 4,0 1,9 3,1 86,0 3,8 79 - 1,4 200 1.023,3
08:17 4,0 1,9 3,1 86,0 3,6 79 - 1,4 197 1.023,4
08:16 3,9 1,8 3,0 86,0 3,3 79 - 1,4 194 1.023,3
08:15 3,9 1,8 3,0 86,0 3,0 82 - 1,4 192 1.023,3
08:14 3,9 1,8 3,0 86,0 2,9 89 - 1,4 189 1.023,3
08:13 3,9 1,8 3,0 86,0 2,6 98 - 1,4 186 1.023,3
08:12 3,9 1,8 3,0 86,0 2,9 105 - 1,4 183 1.023,2
08:11 3,9 1,8 3,0 86,0 3,1 107 - 1,4 180 1.023,2
08:10 3,9 1,8 3,0 86,0 3,3 105 - 1,4 177 1.023,2
08:09 3,8 1,7 2,9 86,0 3,7 100 - 1,4 174 1.023,3
08:08 3,8 1,7 2,9 86,0 4,1 93 - 1,4 171 1.023,2
08:07 3,8 1,7 2,9 86,0 4,3 87 - 1,4 168 1.023,2
08:06 3,8 1,7 2,9 86,0 4,7 82 - 1,4 165 1.023,2
08:05 3,7 1,6 2,8 86,0 4,7 78 - 1,4 162 1.023,2
08:04 3,7 1,6 2,8 86,0 4,8 75 - 1,4 159 1.023,2
08:03 3,7 1,6 2,8 86,0 4,8 72 - 1,4 157 1.023,2
08:02 3,7 1,6 2,9 86,4 5,1 68 - 1,4 155 1.023,2
08:01 3,7 1,7 2,9 86,5 5,4 67 - 1,4 153 1.023,1
08:00 3,7 1,6 2,8 86,0 5,5 67 - 1,4 149 1.023,1
 
07:59 3,7 1,6 2,8 86,0 5,1 69 - 1,4 148 1.023,0
07:58 3,6 1,6 2,8 86,9 4,8 71 - 1,4 144 1.023,0
07:57 3,7 1,6 2,8 86,0 4,7 73 - 1,4 141 1.023,0
07:56 3,7 1,6 2,9 86,4 5,0 72 - 1,4 138 1.022,9
07:55 3,6 1,6 2,8 87,0 5,0 71 - 1,4 137 1.022,9
07:54 3,6 1,6 2,8 87,0 4,8 70 - 1,4 135 1.022,9
07:53 3,6 1,6 2,8 87,0 4,0 68 - 1,4 132 1.022,9
07:52 3,6 1,6 2,8 87,0 3,8 67 - 1,4 129 1.022,8
07:51 3,6 1,6 2,8 87,0 4,2 67 - 1,4 126 1.022,8
07:50 3,5 1,5 2,7 87,0 4,3 68 - 1,4 124 1.022,8
07:49 3,5 1,5 2,7 87,0 3,6 69 - 1,4 121 1.022,8
07:48 3,5 1,5 2,7 87,0 3,4 70 - 1,4 118 1.022,7
07:47 3,5 1,5 2,7 87,0 3,6 71 - 1,4 115 1.022,8
07:46 3,5 1,5 2,7 87,0 4,2 73 - 1,4 114 1.022,7
07:45 3,4 1,4 2,6 87,0 5,2 75 - 1,4 111 1.022,7
07:44 3,4 1,4 2,6 87,0 5,9 77 - 1,4 108 1.022,6
07:43 3,4 1,4 2,6 87,0 6,0 79 - 1,4 104 1.022,6
07:42 3,4 1,4 2,6 87,0 5,3 80 - 1,4 102 1.022,6
07:41 3,4 1,4 2,6 87,0 4,4 80 - 1,4 100 1.022,6
07:40 3,4 1,4 2,6 87,0 3,8 78 - 1,4 99 1.022,5
07:39 3,3 1,3 2,5 87,0 4,5 75 - 1,4 98 1.022,6
07:38 3,3 1,3 2,5 87,0 5,6 73 - 1,4 72 1.022,5
07:37 3,3 1,3 2,5 87,0 5,9 72 - 1,4 87 1.022,5
07:36 3,3 1,3 2,5 87,0 5,4 72 - 1,4 65 1.022,5
07:35 - - - 87,0 4,6 73 - 1,4 68 1.022,5
07:34 3,3 1,2 2,5 86,2 4,2 74 - 1,4 82 1.022,5
07:33 3,3 1,3 2,5 86,7 4,4 76 - 1,4 48 1.022,5
07:32 3,3 1,2 2,4 86,0 5,6 78 - 1,4 43 1.022,4
07:31 3,3 1,3 2,5 86,6 6,1 78 - 1,4 52 1.022,4
07:30 3,3 1,3 2,5 87,0 5,6 77 - 1,4 47 1.022,4
07:29 3,3 1,3 2,5 87,0 5,1 75 - 1,4 61 1.022,4
07:28 3,2 1,1 2,4 86,1 4,8 73 - 1,4 70 1.022,4
07:27 3,2 1,1 2,3 86,0 5,0 72 - 1,4 47 1.022,3
07:26 3,2 1,1 2,3 86,0 5,6 70 10,3 1,4 38 1.022,3
07:25 3,2 1,1 2,3 86,0 6,0 70 10,3 1,4 71 1.022,3
07:24 3,2 1,1 2,3 86,0 6,0 70 - 1,4 52 1.022,3
07:23 3,2 1,1 2,3 86,0 5,8 71 - 1,4 41 1.022,3
07:22 3,2 1,1 2,3 86,0 5,8 71 - 1,4 43 1.022,3
07:21 3,2 1,1 2,3 86,0 5,7 71 - 1,4 34 1.022,2
07:20 3,2 1,1 2,3 86,0 5,6 71 - 1,4 32 1.022,3
07:19 3,2 1,1 2,3 86,0 5,5 69 - 1,4 31 1.022,2
07:18 3,2 1,1 2,3 86,0 5,2 67 - 1,4 25 1.022,1
07:17 3,2 1,1 2,3 86,0 5,1 65 - 1,4 22 1.022,2
07:16 3,2 1,1 2,3 86,0 5,0 62 - 1,4 23 1.022,2
07:15 3,2 1,1 2,3 86,0 5,3 59 - 1,4 25 1.022,2
07:14 3,2 1,1 2,3 86,0 6,2 57 9,4 1,4 23 1.022,1
07:13 3,1 1,0 2,2 86,0 7,2 58 - 1,4 21 1.022,1
07:12 3,2 1,1 2,3 86,0 7,9 59 - 1,4 20 1.021,9
07:11 3,2 1,1 2,3 86,0 7,9 61 13,0 1,4 23 1.022,0
07:10 3,2 1,1 2,3 86,0 8,0 63 - 1,4 21 1.021,9
07:09 3,2 1,1 2,3 86,0 8,1 65 - 1,4 20 1.021,9
07:08 3,2 1,1 2,3 86,0 8,5 67 - 1,4 19 1.021,8
07:07 3,2 1,1 2,3 86,0 8,4 69 13,0 1,4 19 1.021,9
07:06 3,2 1,1 2,3 86,0 7,6 71 - 1,4 17 1.021,8
07:05 3,2 1,1 2,3 86,0 6,6 73 - 1,4 15 1.021,8
07:04 3,2 1,1 2,3 86,0 6,7 74 9,8 1,4 16 1.021,8
07:03 3,2 1,1 2,3 86,0 7,2 74 - 1,4 18 1.021,8
07:02 3,2 1,1 2,3 86,0 7,0 73 11,6 1,4 18 1.021,7
07:01 3,2 1,1 2,3 86,0 6,8 71 - 1,4 19 1.021,6
07:00 3,2 1,1 2,3 86,0 7,0 67 - 1,4 19 1.021,7
 
06:59 3,3 1,2 2,4 86,0 7,2 63 - 1,4 21 1.021,6
06:58 3,2 1,1 2,3 86,0 7,0 60 10,7 1,4 23 1.021,6
06:57 3,3 1,2 2,4 86,0 6,8 58 10,7 1,4 20 1.021,7
06:56 3,3 1,2 2,4 86,0 6,2 56 10,7 1,4 21 1.021,6
06:55 3,3 1,2 2,4 86,0 6,6 55 - 1,4 18 1.021,6
06:54 3,3 1,2 2,4 86,0 7,0 54 - 1,4 15 1.021,6
06:53 3,3 1,0 2,4 85,1 6,7 52 - 1,4 12 1.021,6
06:52 3,3 1,0 2,4 85,0 6,0 52 - 1,4 11 1.021,6
06:51 3,3 1,0 2,4 85,0 6,2 51 9,8 1,4 9 1.021,5
06:50 3,3 1,0 2,4 85,0 6,5 52 - 1,4 11 1.021,5
06:49 3,3 1,0 2,4 85,0 6,5 53 - 1,4 10 1.021,5
06:48 3,3 1,0 2,4 85,0 6,8 54 - 1,4 5 1.021,4
06:47 3,3 1,0 2,4 85,0 8,0 54 - 1,4 5 1.021,3
06:46 3,4 1,1 2,5 85,0 8,7 55 12,5 1,4 6 1.021,3
06:45 3,4 1,1 2,5 85,0 7,9 56 - 1,4 7 1.021,4
06:44 3,3 1,0 2,4 85,0 6,4 57 - 1,4 5 1.021,4
06:43 3,4 1,1 2,5 85,0 5,9 58 - 1,4 5 1.021,3
06:42 3,4 1,1 2,5 85,0 6,1 59 - 1,4 5 1.021,3
06:41 3,4 1,0 2,4 84,0 6,5 60 - 1,4 6 1.021,3
06:40 3,4 1,0 2,4 84,0 6,8 60 10,3 1,4 7 1.021,2
06:39 3,4 1,0 2,4 84,0 6,7 59 - 1,4 7 1.021,3
06:38 3,4 1,0 2,4 84,0 6,8 57 - 1,4 7 1.021,3
06:37 3,5 1,1 2,5 84,0 7,2 56 10,3 1,4 6 1.021,2
06:36 3,5 1,1 2,5 84,0 7,4 54 10,7 1,4 7 1.021,1
06:35 3,6 1,1 2,6 84,0 7,4 53 - 1,4 6 1.021,2
06:34 3,6 1,1 2,6 84,0 6,8 54 - 1,4 5 1.021,2
06:33 3,7 1,2 2,7 84,0 5,7 55 - 1,4 5 1.021,2
06:32 3,6 1,1 2,6 84,0 5,4 56 - 1,4 4 1.021,1
06:31 3,7 1,2 2,7 84,0 5,8 58 - 1,4 0 1.021,1
06:30 3,7 1,2 2,7 84,0 6,1 59 - 1,4 0 1.021,1
06:29 3,7 1,2 2,7 84,0 5,9 59 - 1,4 0 1.021,1
06:28 3,7 1,2 2,7 83,5 6,1 59 - 1,4 0 1.021,0
06:27 3,7 1,1 2,6 83,0 7,1 59 - 1,4 0 1.021,0
06:26 3,8 1,2 2,7 83,0 8,1 59 11,6 1,4 0 1.021,0
06:25 3,8 1,2 2,7 83,0 8,8 59 - 1,4 0 1.020,9
06:24 3,9 1,3 2,8 83,0 8,5 60 - 1,4 0 1.021,0
06:23 3,8 1,2 2,7 83,0 8,1 61 - 1,4 0 1.020,9
06:22 3,9 1,3 2,8 83,0 8,0 61 - 1,4 0 1.020,9
06:21 4,0 1,4 2,9 83,0 7,7 62 - 1,4 0 1.020,9
06:20 3,9 1,3 2,8 83,0 7,2 61 - 1,4 0 1.020,9
06:19 4,0 1,4 2,9 83,0 7,0 59 10,3 1,4 0 1.020,8
06:18 4,1 1,5 3,0 83,0 6,9 55 10,3 1,4 0 1.020,9
06:17 4,1 1,5 3,0 83,0 6,5 52 - 1,4 0 1.020,8
06:16 4,2 1,6 3,1 83,0 6,8 50 10,3 1,4 0 1.020,8
06:15 4,2 1,6 3,1 83,0 7,4 49 10,7 1,4 0 1.020,7
06:14 4,3 1,5 3,2 82,3 7,4 48 - 1,4 0 1.020,7
06:13 4,2 1,4 3,1 82,0 7,3 48 11,2 1,4 0 1.020,7
06:12 4,3 1,5 3,2 82,0 7,7 50 - 1,4 0 1.020,6
06:11 4,3 1,5 3,2 82,0 7,5 50 11,2 1,4 0 1.020,7
06:10 4,3 1,5 3,2 82,0 7,3 49 - 1,4 0 1.020,7
06:09 4,3 1,5 3,2 82,0 7,4 47 12,1 1,4 0 1.020,7
06:08 4,3 1,5 3,2 82,0 7,9 46 11,6 1,4 0 1.020,6
06:07 4,3 1,5 3,2 82,0 8,3 44 - 1,4 0 1.020,6
06:06 4,4 1,6 3,3 82,0 8,7 43 12,1 1,4 0 1.020,6
06:05 4,3 1,5 3,2 82,0 8,7 42 - 1,4 0 1.020,6
06:04 4,4 1,6 3,3 82,0 8,7 42 - 1,4 0 1.020,5
06:03 4,5 1,7 3,4 82,0 8,4 44 11,6 1,4 0 1.020,6
06:02 4,5 1,7 3,4 82,0 7,5 46 13,0 1,4 0 1.020,6
06:01 4,5 1,7 3,4 82,0 6,9 47 - 1,4 0 1.020,6
06:00 4,5 1,7 3,4 82,0 6,7 47 9,8 1,4 0 1.020,5
 
05:59 4,4 1,6 3,3 82,0 7,4 46 - 1,4 0 1.020,5
05:58 4,5 1,7 3,4 82,0 8,1 45 - 1,4 0 1.020,5
05:57 4,5 1,7 3,4 82,0 8,4 45 13,9 1,4 0 1.020,5
05:56 4,6 1,8 3,5 82,0 8,0 46 12,5 1,4 0 1.020,5
05:55 4,6 1,8 3,5 82,0 7,9 46 - 1,4 0 1.020,4
05:54 4,6 1,8 3,5 82,0 8,3 45 13,0 1,4 0 1.020,4
05:53 4,6 1,8 3,5 82,0 7,9 44 11,6 1,4 0 1.020,5
05:52 4,6 1,8 3,5 82,0 7,2 41 - 1,4 0 1.020,5
05:51 4,7 1,9 3,5 82,0 6,9 36 - 1,4 0 1.020,5
05:50 4,7 1,9 3,5 82,0 7,6 33 - 1,4 0 1.020,5
05:49 4,7 1,9 3,5 82,0 7,2 29 12,5 1,4 0 1.020,5
05:48 4,7 1,9 3,5 82,0 6,4 26 9,8 1,4 0 1.020,5
05:47 4,7 1,9 3,5 82,0 5,6 24 - 1,4 0 1.020,5
05:46 4,7 1,9 3,5 82,0 5,1 25 - 1,4 0 1.020,4
05:45 4,7 1,9 3,5 82,0 5,5 28 - 1,4 0 1.020,5
05:44 4,8 2,0 3,6 82,0 5,1 29 11,2 1,4 0 1.020,4
05:43 4,8 2,0 3,6 82,0 5,9 28 - 1,4 0 1.020,5
05:42 4,8 2,0 3,7 82,3 7,1 24 - 1,4 0 1.020,4
05:41 4,8 2,2 3,7 83,0 7,9 18 12,1 1,4 0 1.020,3
05:40 4,8 2,2 3,7 83,0 7,4 10 - 1,4 0 1.020,3
05:39 4,8 2,2 3,7 83,0 7,3 3 10,3 1,4 0 1.020,3
05:38 4,8 2,2 3,7 83,0 8,1 0 11,2 1,4 0 1.020,2
05:37 4,8 2,1 3,7 82,9 8,2 1 11,6 1,4 0 1.020,1
05:36 4,8 2,0 3,6 82,0 7,6 5 11,6 1,4 0 1.020,2
05:35 4,7 1,9 3,5 82,0 7,5 10 - 1,4 0 1.020,3
05:34 4,8 2,0 3,6 82,0 8,2 15 - 1,4 0 1.020,3
05:33 4,8 2,0 3,6 82,0 8,8 17 13,0 1,4 0 1.020,3
05:32 4,8 2,1 3,7 82,9 8,4 17 12,1 1,4 0 1.020,3
05:31 4,8 2,2 3,7 83,0 8,0 16 - 1,4 0 1.020,3
05:30 4,8 2,2 3,7 83,0 7,8 16 12,5 1,4 0 1.020,4
05:29 4,8 2,2 3,7 83,0 7,5 17 10,7 1,4 0 1.020,3
05:28 4,8 2,2 3,7 83,0 6,8 17 10,3 1,4 0 1.020,3
05:27 4,8 2,2 3,7 83,0 6,6 18 9,8 1,4 0 1.020,4
05:26 4,8 2,2 3,7 83,0 6,1 21 10,3 1,4 0 1.020,4
05:25 4,8 2,2 3,7 83,0 6,1 22 - 1,4 0 1.020,4
05:24 4,9 2,3 3,8 83,0 6,1 22 10,7 1,4 0 1.020,5
05:23 4,9 2,3 3,8 83,0 6,1 23 - 1,4 0 1.020,4
05:22 4,9 2,3 3,8 83,0 6,5 25 - 1,4 0 1.020,4
05:21 4,9 2,3 3,8 83,0 6,8 27 - 1,4 0 1.020,5
05:20 4,9 2,3 3,8 83,0 5,6 29 - 1,4 0 1.020,5
05:19 4,9 2,3 3,8 83,0 5,3 32 - 1,4 0 1.020,4
05:18 4,9 2,3 3,8 83,0 6,1 35 - 1,4 0 1.020,3
05:17 4,9 2,3 3,8 83,0 6,1 39 10,7 1,4 0 1.020,4
05:16 4,9 2,3 3,8 83,0 6,1 41 - 1,4 0 1.020,4
05:15 4,9 2,3 3,8 83,0 6,3 42 9,4 1,4 0 1.020,4
05:14 4,8 2,2 3,7 83,0 7,1 41 - 1,4 0 1.020,4
05:13 4,8 2,2 3,7 83,0 7,7 40 - 1,4 0 1.020,4
05:12 4,9 2,3 3,8 83,0 7,6 39 - 1,4 0 1.020,4
05:11 4,9 2,3 3,8 83,0 7,1 35 10,3 1,4 0 1.020,4
05:10 4,9 2,3 3,8 83,0 5,9 31 - 1,4 0 1.020,4
05:09 4,9 2,3 3,8 83,0 4,9 26 - 1,4 0 1.020,4
05:08 4,9 2,3 3,8 83,0 5,1 20 - 1,4 0 1.020,3
05:07 4,9 2,3 3,8 83,0 6,3 14 9,4 1,4 0 1.020,3
05:06 4,9 2,3 3,8 83,0 7,2 10 10,7 1,4 0 1.020,3
05:05 4,9 2,3 3,8 83,0 6,4 12 10,7 1,4 0 1.020,2
05:04 4,9 2,3 3,8 83,0 6,5 17 - 1,4 0 1.020,3
05:03 4,9 2,3 3,8 83,4 4,7 25 10,3 1,4 0 1.020,3
05:02 4,9 2,4 3,9 84,0 6,3 33 9,4 1,4 0 1.020,3
05:01 4,9 2,4 3,9 84,0 7,0 40 - 1,4 0 1.020,2
05:00 4,8 2,3 3,8 83,6 6,9 43 11,2 1,4 0 1.020,2
 
04:59 4,8 2,2 3,7 83,0 6,1 43 - 1,4 0 1.020,3
04:58 4,8 2,2 3,7 83,0 5,5 39 - 1,4 0 1.020,3
04:57 4,8 2,2 3,7 83,0 5,7 36 - 1,4 0 1.020,3
04:56 4,8 2,2 3,7 83,0 6,8 34 - 1,4 0 1.020,2
04:55 4,9 2,3 3,8 83,3 7,4 33 - 1,4 0 1.020,2
04:54 4,9 2,4 3,9 84,0 7,5 34 - 1,4 0 1.020,1
04:53 4,9 2,4 3,9 84,0 7,2 35 11,6 1,4 0 1.020,2
04:52 4,9 2,4 3,9 84,0 7,1 37 - 1,4 0 1.020,2
04:51 4,9 2,4 3,9 84,0 7,0 38 - 1,4 0 1.020,0
04:50 5,0 2,5 4,0 84,0 7,4 37 10,7 1,4 0 1.020,1
04:49 5,0 2,5 4,0 84,0 7,8 32 12,1 1,4 0 1.020,0
04:48 5,0 2,5 4,0 84,0 7,5 24 11,6 1,4 0 1.020,0
04:47 5,1 2,6 4,1 84,0 8,0 16 11,2 1,4 0 1.020,1
04:46 5,1 2,6 4,1 84,0 8,7 8 - 1,4 0 1.020,1
04:45 5,2 2,9 4,3 84,9 7,8 5 11,2 1,4 0 1.020,1
04:44 5,2 2,9 4,3 85,0 6,1 6 9,8 1,4 0 1.020,2
04:43 5,3 3,0 4,4 85,0 6,0 10 12,1 1,4 0 1.020,1
04:42 5,3 3,0 4,4 85,0 7,4 13 11,2 1,4 0 1.020,1
04:41 5,3 3,0 4,4 85,0 8,4 16 12,1 1,4 0 1.019,9
04:40 5,3 3,0 4,4 85,0 9,3 16 13,4 1,4 0 1.020,0
04:39 5,3 3,0 4,4 85,0 10,0 15 - 1,4 0 1.019,9
04:38 5,4 3,1 4,5 85,0 9,2 14 - 1,4 0 1.020,0
04:37 5,5 3,2 4,6 85,3 8,5 14 - 1,4 0 1.020,0
04:36 5,5 3,3 4,6 86,0 8,2 14 - 1,4 0 1.020,0
04:35 5,6 3,4 4,7 86,0 7,3 12 10,3 1,4 0 1.020,0
04:34 5,6 3,4 4,7 86,0 7,3 6 12,5 1,4 0 1.019,9
04:33 5,5 3,3 4,6 86,0 7,3 359 11,2 1,4 0 1.019,8
04:32 5,5 3,3 4,6 86,0 9,5 351 - 1,4 0 1.019,8
04:31 5,4 3,2 4,5 86,0 10,1 344 - 1,4 0 1.019,8
04:30 5,4 3,2 4,5 86,0 10,7 339 - 1,4 0 1.019,9
04:29 5,4 3,4 4,6 86,7 10,7 337 - 1,4 0 1.019,9
04:28 5,4 3,4 4,6 87,0 9,9 335 - 1,4 0 1.019,9
04:27 5,3 3,3 4,5 87,0 9,4 333 - 1,4 0 1.019,9
04:26 5,2 3,2 4,4 87,0 9,3 330 - 1,4 0 1.019,9
04:25 5,1 3,1 4,3 86,7 9,1 328 - 1,4 0 1.019,9
04:24 5,0 2,9 4,2 86,5 9,1 327 - 1,4 0 1.019,9
04:23 5,0 2,9 4,2 86,4 9,5 326 - 1,4 0 1.019,9
04:22 5,0 3,0 4,2 86,8 9,7 326 - 1,4 0 1.019,8
04:21 5,0 3,0 4,2 87,0 9,6 326 - 1,4 0 1.019,9
04:20 5,0 3,0 4,2 87,0 9,0 326 - 1,4 0 1.019,9
04:19 5,0 3,0 4,2 87,0 8,8 325 - 1,4 0 1.019,9
04:18 4,9 2,9 4,1 87,0 9,0 322 - 1,4 0 1.019,9
04:17 4,9 2,9 4,1 87,0 8,8 320 - 1,4 0 1.019,9
04:16 4,9 2,9 4,1 87,0 8,7 317 - 1,4 0 1.019,9
04:15 4,8 2,8 4,0 87,0 8,8 316 - 1,4 0 1.020,0
04:14 4,8 2,8 4,0 87,0 8,7 314 - 1,4 0 1.019,9
04:13 4,8 2,8 4,0 86,6 8,5 314 - 1,4 0 1.019,9
04:12 4,7 2,6 3,8 86,0 8,4 315 - 1,4 0 1.020,0
04:11 4,6 2,6 3,8 86,7 8,6 317 - 1,4 0 1.020,0
04:10 4,6 2,5 3,8 86,2 8,6 319 - 1,4 0 1.020,1
04:09 4,5 2,4 3,6 86,0 8,7 322 - 1,4 0 1.020,1
04:08 4,5 2,4 3,6 86,0 8,7 325 - 1,2 0 1.020,1
04:07 4,5 2,4 3,6 86,0 9,0 329 - 1,2 0 1.020,2
04:06 4,6 2,5 3,7 86,0 9,6 332 - 1,2 0 1.020,2
04:05 4,6 2,3 3,7 85,3 9,7 335 - 1,2 0 1.020,4
04:04 4,6 2,3 3,7 85,0 9,9 338 - 1,2 0 1.020,4
04:03 4,6 2,3 3,7 85,0 10,5 341 - 1,2 0 1.020,3
04:02 4,7 2,4 3,8 85,0 10,6 343 - 1,2 0 1.020,4
04:01 4,7 2,4 3,8 85,0 10,1 347 - 1,2 0 1.020,5
04:00 4,6 2,2 3,6 84,4 9,5 351 - 1,2 0 1.020,4
 
03:59 4,6 2,1 3,6 84,0 8,9 353 12,1 1,2 0 1.020,3
03:58 4,6 2,1 3,6 84,0 8,9 353 12,5 1,2 0 1.020,4
03:57 4,6 2,1 3,6 84,0 8,4 351 13,9 1,0 0 1.020,3
03:56 4,7 2,2 3,7 83,7 8,5 349 11,6 1,0 0 1.020,3
03:55 4,7 2,1 3,6 83,0 10,4 346 - 1,0 0 1.020,4
03:54 4,9 2,3 3,8 83,0 10,1 342 - 1,0 0 1.020,6
03:53 4,9 2,1 3,8 82,3 9,3 339 - 1,0 0 1.020,6
03:52 4,9 1,9 3,7 81,1 9,0 338 13,0 1,0 0 1.020,7
03:51 4,9 1,7 3,6 79,7 9,3 337 12,5 1,0 0 1.020,6
03:50 5,1 1,8 3,7 79,0 10,2 335 - 1,0 0 1.020,6
03:49 5,9 2,7 4,6 80,0 10,6 329 13,9 0,8 0 1.020,6
03:48 6,2 3,1 4,9 80,4 11,2 323 - 0,8 0 1.019,8
03:47 6,2 3,0 4,9 80,0 11,1 318 14,3 0,8 0 1.019,7
03:46 6,3 3,1 5,0 80,0 11,3 313 - 0,8 0 1.019,7
03:45 6,3 3,1 5,0 80,0 11,3 307 - 0,8 0 1.019,5
03:44 6,3 3,1 5,0 80,0 11,6 303 - 0,8 0 1.019,5
03:43 6,2 3,0 4,9 80,0 11,7 301 - 0,8 0 1.019,5
03:42 6,2 3,0 4,9 80,0 11,7 300 - 0,8 0 1.019,7
03:41 6,2 3,1 4,9 80,8 11,5 300 - 0,8 0 1.019,6
03:40 6,1 2,8 4,7 79,3 11,7 301 - 0,8 0 1.019,6
03:39 6,1 3,0 4,8 80,8 11,6 301 - 0,8 0 1.019,7
03:38 6,1 2,9 4,8 80,0 11,4 301 - 0,8 0 1.019,7
03:37 6,1 3,0 4,8 80,6 11,3 301 - 0,8 0 1.019,8
03:36 6,1 3,1 4,8 81,0 11,3 302 - 0,8 0 1.019,8
03:35 6,1 3,1 4,8 81,0 11,1 302 14,3 0,8 0 1.019,9
03:34 6,1 2,9 4,8 80,2 11,2 302 - 0,8 0 1.020,0
03:33 6,1 3,1 4,8 81,0 11,5 302 - 0,8 0 1.020,0
03:32 6,1 3,1 4,8 81,0 11,4 302 - 0,8 0 1.020,0
03:31 6,1 3,1 4,8 81,0 10,9 302 - 0,8 0 1.020,1
03:30 6,0 3,0 4,7 81,0 10,5 303 - 0,8 0 1.020,2
03:29 6,0 3,1 4,8 81,9 10,1 303 - 0,8 0 1.020,2
03:28 5,9 2,9 4,7 81,1 9,6 303 - 0,8 0 1.020,1
03:27 5,9 2,9 4,6 81,0 9,5 302 - 0,8 0 1.020,2
03:26 5,9 2,9 4,6 81,0 9,5 302 - 0,8 0 1.020,2
03:25 5,9 2,9 4,6 81,0 9,5 301 - 0,8 0 1.020,3
03:24 5,9 2,9 4,6 81,0 9,1 300 - 0,8 0 1.020,3
03:23 5,9 3,0 4,7 81,9 9,1 299 - 0,8 0 1.020,4
03:22 5,9 2,9 4,6 80,9 9,4 298 - 0,8 0 1.020,4
03:21 5,9 2,7 4,6 80,0 9,8 298 - 0,8 0 1.020,5
03:20 5,9 2,8 4,6 80,5 10,0 297 - 0,8 0 1.020,4
03:19 6,0 3,0 4,7 81,0 9,9 297 - 0,8 0 1.020,4
03:18 5,9 2,9 4,6 81,0 9,7 297 - 0,8 0 1.020,5
03:17 5,9 2,7 4,6 80,2 9,7 298 - 0,8 0 1.020,6
03:16 6,0 3,0 4,7 80,8 9,4 299 - 0,8 0 1.020,6
03:15 5,9 2,8 4,6 80,4 9,2 301 - 0,8 0 1.020,6
03:14 6,0 3,0 4,7 81,0 9,0 302 - 0,8 0 1.020,7
03:13 5,9 2,8 4,6 80,4 8,8 303 - 0,8 0 1.020,8
03:12 6,0 2,8 4,7 80,0 8,8 304 - 0,8 0 1.020,8
03:11 6,0 3,0 4,7 80,9 8,9 305 - 0,8 0 1.020,8
03:10 5,9 2,7 4,6 80,0 8,8 306 - 0,8 0 1.020,9
03:09 5,9 2,7 4,5 79,7 8,7 307 - 0,8 0 1.020,9
03:08 5,9 2,5 4,5 79,0 9,1 306 - 0,8 0 1.020,9
03:07 6,0 2,8 4,6 79,7 9,6 304 - 0,8 0 1.020,9
03:06 6,0 2,7 4,6 79,2 9,9 303 - 0,8 0 1.021,0
03:05 6,0 2,6 4,6 79,0 9,8 303 - 0,8 0 1.020,9
03:04 6,0 2,6 4,6 79,0 9,5 304 - 0,8 0 1.021,0
03:03 6,0 2,6 4,6 79,0 9,2 305 - 0,8 0 1.021,1
03:02 6,1 2,7 4,7 79,0 8,7 307 - 0,8 0 1.021,1
03:01 6,0 2,6 4,6 79,0 8,8 308 - 0,8 0 1.021,0
03:00 6,0 2,5 4,5 78,2 8,8 308 - 0,8 0 1.021,0
 
02:59 6,0 2,3 4,4 77,1 9,3 306 - 0,8 0 1.021,1
02:58 6,0 2,5 4,5 78,0 9,8 303 - 0,8 0 1.021,0
02:57 6,1 2,6 4,6 78,0 10,0 300 - 0,8 0 1.020,9
02:56 6,2 2,6 4,7 77,5 10,2 299 - 0,8 0 1.021,0
02:55 6,2 2,5 4,6 77,0 10,1 300 - 0,8 0 1.021,1
02:54 6,3 2,4 4,7 76,2 9,9 301 - 0,8 0 1.021,2
02:53 6,3 2,2 4,6 75,1 10,3 303 - 0,8 0 1.021,2
02:52 6,3 2,2 4,6 75,3 11,3 305 14,3 0,8 0 1.021,2
02:51 6,3 2,3 4,6 75,6 11,7 306 - 0,8 0 1.021,3
02:50 6,3 2,3 4,6 75,6 11,5 307 - 0,8 0 1.021,2
02:49 6,3 2,5 4,7 76,7 11,6 309 - 0,8 0 1.021,2
02:48 6,3 2,4 4,7 76,2 11,5 312 - 0,8 0 1.021,2
02:47 6,2 2,3 4,5 76,0 10,8 315 - 0,8 0 1.021,3
02:46 6,2 2,3 4,5 76,0 9,5 318 13,0 0,8 0 1.021,3
02:45 6,2 2,4 4,6 76,9 10,6 319 - 0,8 0 1.021,3
02:44 6,1 2,6 4,6 78,0 10,6 321 13,9 0,8 0 1.021,3
02:43 6,1 2,6 4,6 78,0 11,2 321 - 0,8 0 1.021,3
02:42 6,0 2,6 4,6 78,9 10,4 320 - 0,8 0 1.021,3
02:41 5,9 2,5 4,5 79,0 9,9 318 - 0,8 0 1.021,3
02:40 5,9 2,5 4,5 79,0 9,7 318 - 0,8 0 1.021,4
02:39 5,9 2,5 4,5 79,0 9,7 318 - 0,8 0 1.021,4
02:38 5,9 2,5 4,5 79,0 9,9 320 - 0,8 0 1.021,4
02:37 5,9 2,5 4,5 79,0 10,1 321 - 0,8 0 1.021,4
02:36 5,8 2,6 4,5 79,9 9,7 322 - 0,8 0 1.021,4
02:35 5,8 2,6 4,5 79,8 9,2 323 - 0,8 0 1.021,5
02:34 5,8 2,5 4,4 79,4 9,0 324 - 0,8 0 1.021,5
02:33 5,8 2,6 4,5 80,0 8,7 325 - 0,8 0 1.021,6
02:32 5,7 2,5 4,4 80,0 8,7 324 - 0,8 0 1.021,5
02:31 5,8 2,6 4,5 80,0 8,9 322 - 0,8 0 1.021,4
02:30 5,7 2,5 4,4 80,0 9,1 320 - 0,8 0 1.021,5
02:29 5,7 2,6 4,4 80,2 9,2 317 - 0,8 0 1.021,6
02:28 5,7 2,6 4,4 80,7 9,0 314 - 0,8 0 1.021,7
02:27 5,6 2,4 4,3 80,0 8,8 311 - 0,8 0 1.021,7
02:26 5,6 2,4 4,3 80,0 8,8 309 - 0,8 0 1.021,7
02:25 5,6 2,4 4,3 80,0 9,0 308 - 0,8 0 1.021,7
02:24 5,6 2,4 4,3 80,0 9,2 308 - 0,8 0 1.021,7
02:23 5,7 2,6 4,4 80,3 9,4 309 - 0,8 0 1.021,7
02:22 5,7 2,7 4,5 81,0 9,3 312 - 0,8 0 1.021,8
02:21 5,6 2,6 4,4 81,0 9,4 314 - 0,8 0 1.021,8
02:20 5,5 2,4 4,2 80,4 9,6 316 - 0,8 0 1.021,8
02:19 5,5 2,3 4,2 80,0 10,1 318 - 0,8 0 1.021,8
02:18 5,5 2,3 4,2 80,1 10,4 319 - 0,8 0 1.021,8
02:17 5,5 2,5 4,3 81,0 10,3 320 - 0,8 0 1.021,9
02:16 5,5 2,4 4,2 80,6 10,2 321 - 0,8 0 1.021,9
02:15 5,5 2,3 4,2 80,0 10,5 323 - 0,8 0 1.021,9
02:14 5,6 2,5 4,3 80,7 11,1 325 - 0,8 0 1.021,9
02:13 5,6 2,6 4,4 81,0 11,7 327 - 0,8 0 1.021,9
02:12 5,7 2,7 4,5 81,1 12,2 327 - 0,8 0 1.021,9
02:11 5,8 2,9 4,6 81,8 12,3 327 15,6 0,6 0 1.021,9
02:10 5,7 2,7 4,5 81,0 11,9 325 - 0,6 0 1.021,9
02:09 5,7 2,7 4,5 81,0 11,4 323 - 0,6 0 1.022,0
02:08 5,6 2,6 4,4 81,0 11,2 323 - 0,6 0 1.021,9
02:07 5,6 2,6 4,4 81,0 11,0 323 - 0,6 0 1.021,9
02:06 5,5 2,5 4,2 80,9 11,2 323 - 0,6 0 1.021,9
02:05 5,5 2,3 4,2 80,0 11,4 323 - 0,4 0 1.021,9
02:04 5,5 2,4 4,2 80,5 11,7 322 - 0,4 0 1.021,9
02:03 5,5 2,5 4,3 81,0 11,4 320 - 0,4 0 1.021,9
02:02 5,5 2,3 4,2 80,1 10,8 317 - 0,4 0 1.022,0
02:01 5,4 2,2 4,1 80,0 9,6 314 - 0,2 0 1.022,1
02:00 5,4 2,0 4,0 78,9 8,4 313 - 0,2 0 1.022,1
 
01:59 5,5 1,9 4,0 77,7 7,2 313 10,7 0,2 0 1.022,2
01:58 5,7 2,0 4,1 77,0 6,8 316 - 0,0 0 1.022,2
01:57 6,0 2,4 4,5 77,8 7,9 318 11,2 0,0 0 1.022,2
01:56 6,2 2,8 4,8 78,8 9,3 319 12,5 0,0 0 1.022,1
01:55 6,2 2,7 4,7 78,1 9,6 319 - 0,0 0 1.022,0
01:54 6,2 2,7 4,7 78,2 9,3 319 - 0,0 0 1.021,9
01:53 6,1 2,7 4,7 78,7 9,2 317 - 0,0 0 1.021,9
01:52 6,1 2,6 4,6 78,5 8,7 315 - 0,0 0 1.021,8
01:51 6,1 2,7 4,7 79,0 8,6 313 - 0,0 0 1.021,9
01:50 6,1 2,7 4,7 79,0 8,8 310 - 0,0 0 1.021,9
01:49 6,2 2,8 4,8 79,0 9,1 308 - 0,0 0 1.021,9
01:48 6,1 2,7 4,7 79,0 9,2 306 - 0,0 0 1.021,9
01:47 6,1 2,7 4,7 79,0 9,3 304 - 0,0 0 1.022,0
01:46 6,1 2,7 4,7 79,0 9,2 303 - 0,0 0 1.022,0
01:45 6,0 2,6 4,6 79,0 9,1 303 - 0,0 0 1.022,1
01:44 6,0 2,6 4,6 79,0 8,9 303 - 0,0 0 1.022,1
01:43 6,0 2,6 4,6 79,0 9,1 303 - 0,0 0 1.022,1
01:42 6,0 2,6 4,6 79,0 9,1 303 - 0,0 0 1.022,1
01:41 6,0 2,6 4,6 79,0 9,0 302 - 0,0 0 1.022,0
01:40 5,9 2,5 4,5 79,0 8,8 301 12,1 0,0 0 1.022,1
01:39 5,9 2,5 4,5 79,0 8,5 301 - 0,0 0 1.022,1
01:38 6,0 2,6 4,6 79,0 8,5 301 - 0,0 0 1.022,1
01:37 6,0 2,6 4,6 79,0 8,9 301 - 0,0 0 1.022,2
01:36 5,9 2,6 4,5 79,3 9,4 301 - 0,0 0 1.022,2
01:35 5,9 2,6 4,5 79,6 9,4 303 - 0,0 0 1.022,2
01:34 5,7 2,3 4,3 79,0 9,1 305 - 0,0 0 1.022,2
01:33 5,5 2,1 4,1 79,0 8,0 308 - 0,0 0 1.022,3
01:32 5,4 2,0 4,0 79,0 7,1 311 - 0,0 0 1.022,4
01:31 5,3 1,8 3,8 78,1 6,8 313 - 0,0 0 1.022,4
01:30 5,3 1,8 3,9 78,3 7,0 315 - 0,0 0 1.022,4
01:29 5,4 2,0 4,0 79,0 7,0 316 - 0,0 0 1.022,4
01:28 5,4 2,0 4,0 79,0 7,1 316 - 0,0 0 1.022,5
01:27 5,3 2,0 3,9 79,0 7,0 316 - 0,0 0 1.022,5
01:26 5,3 1,8 3,9 78,2 7,3 316 - 0,0 0 1.022,5
01:25 5,3 1,8 3,8 77,9 7,5 317 - 0,0 0 1.022,6
01:24 5,4 1,6 3,8 76,7 7,6 318 - 0,0 0 1.022,6
01:23 5,3 1,4 3,7 76,0 7,8 319 - 0,0 0 1.022,6
01:22 5,4 1,4 3,7 75,5 8,5 322 - 0,0 0 1.022,6
01:21 5,6 1,1 3,7 72,9 8,4 324 - 0,0 0 1.022,7
01:20 5,6 1,1 3,7 72,9 7,5 327 - 0,0 0 1.022,7
01:19 5,8 1,5 4,0 74,0 7,5 330 - 0,0 0 1.022,7
01:18 6,1 1,9 4,3 74,3 8,6 331 - 0,0 0 1.022,7
01:17 6,2 2,1 4,5 75,0 9,4 331 14,3 0,0 0 1.022,6
01:16 6,3 2,2 4,6 75,0 9,8 330 14,3 0,0 0 1.022,6
01:15 6,3 2,2 4,6 75,0 10,0 327 - 0,0 0 1.022,6
01:14 6,3 2,2 4,6 75,0 9,8 324 - 0,0 0 1.022,6
01:13 6,3 2,2 4,6 75,2 9,5 323 - 0,0 0 1.022,6
01:12 6,3 2,3 4,6 75,7 8,9 321 - 0,0 0 1.022,6
01:11 6,4 2,3 4,7 75,0 8,5 320 - 0,0 0 1.022,5
01:10 6,3 2,2 4,6 75,0 8,6 320 - 0,0 0 1.022,6
01:09 6,3 2,2 4,6 75,0 9,1 320 - 0,0 0 1.022,6
01:08 6,3 2,2 4,6 75,0 9,5 321 - 0,0 0 1.022,6
01:07 6,4 2,3 4,7 75,0 9,8 322 - 0,0 0 1.022,5
01:06 6,4 2,3 4,7 75,0 10,0 323 - 0,0 0 1.022,6
01:05 6,4 2,3 4,7 75,0 9,9 324 - 0,0 0 1.022,5
01:04 6,3 2,1 4,5 74,4 9,6 325 - 0,0 0 1.022,5
01:03 6,3 2,2 4,6 74,9 10,0 325 - 0,0 0 1.022,5
01:02 6,3 2,2 4,6 75,2 10,7 324 - 0,0 0 1.022,5
01:01 6,3 2,4 4,6 76,0 11,2 322 - 0,0 0 1.022,5
01:00 6,3 2,5 4,7 76,4 11,4 321 - 0,0 0 1.022,5
 
00:59 6,3 2,6 4,7 77,0 11,1 321 - 0,0 0 1.022,6
00:58 6,1 2,3 4,5 76,4 10,6 323 - 0,0 0 1.022,7
00:57 5,9 2,0 4,3 76,0 9,7 327 - 0,0 0 1.022,6
00:56 5,9 2,0 4,3 76,0 9,2 332 - 0,0 0 1.022,6
00:55 5,9 2,0 4,3 76,0 8,6 337 - 0,0 0 1.022,6
00:54 6,1 2,3 4,5 76,4 8,9 339 - 0,0 0 1.022,6
00:53 6,0 2,3 4,4 77,0 9,6 339 - 0,0 0 1.022,6
00:52 6,1 2,4 4,5 77,0 11,6 336 - 0,0 0 1.022,6
00:51 6,2 2,5 4,6 77,0 12,8 333 16,1 0,0 0 1.022,5
00:50 6,4 2,7 4,8 77,0 13,4 331 - 0,0 0 1.022,4
00:49 6,5 2,8 4,9 77,0 13,6 331 - 0,0 0 1.022,4
00:48 6,5 2,7 4,9 76,6 13,5 333 - 0,0 0 1.022,4
00:47 6,6 2,7 4,9 76,0 12,1 338 15,6 0,0 0 1.022,5
00:46 6,6 2,7 4,9 76,0 10,4 343 15,2 0,0 0 1.022,6
00:45 6,7 2,8 5,0 76,0 9,6 347 13,9 0,0 0 1.022,6
00:44 6,8 2,9 5,1 76,0 8,8 350 13,4 0,0 0 1.022,6
00:43 6,8 2,8 5,1 75,7 8,6 352 11,6 0,0 0 1.022,6
00:42 6,8 2,7 5,0 75,0 9,0 350 - 0,0 0 1.022,6
00:41 6,8 2,7 5,0 75,0 8,9 346 - 0,0 0 1.022,6
00:40 6,8 2,5 5,0 74,3 8,3 341 - 0,0 0 1.022,7
00:39 6,8 2,5 5,0 74,0 8,0 336 - 0,0 0 1.022,6
00:38 6,8 2,5 5,0 74,0 8,4 331 - 0,0 0 1.022,5
00:37 6,8 2,5 5,0 74,3 8,6 326 - 0,0 0 1.022,5
00:36 6,8 2,7 5,0 75,0 8,5 323 - 0,0 0 1.022,5
00:35 6,8 2,7 5,0 75,0 8,5 321 - 0,0 0 1.022,5
00:34 6,7 2,4 4,9 74,3 8,5 319 - 0,0 0 1.022,6
00:33 6,6 2,3 4,8 74,0 8,5 317 - 0,0 0 1.022,6
00:32 6,7 2,4 4,9 74,2 8,4 314 - 0,0 0 1.022,7
00:31 6,7 2,6 4,9 75,0 8,5 311 - 0,0 0 1.022,7
00:30 6,7 2,6 4,9 75,0 8,4 309 - 0,0 0 1.022,6
00:29 6,7 2,6 4,9 75,0 8,2 307 - 0,0 0 1.022,6
00:28 6,7 2,6 4,9 75,0 8,2 307 - 0,0 0 1.022,6
00:27 6,6 2,5 4,9 75,0 8,4 307 - 0,0 0 1.022,6
00:26 6,6 2,5 4,9 75,0 8,7 308 - 0,0 0 1.022,6
00:25 6,6 2,5 4,9 75,0 8,7 309 - 0,0 0 1.022,7
00:24 6,5 2,4 4,8 75,0 9,0 309 - 0,0 0 1.022,7
00:23 6,6 2,6 4,9 75,7 9,2 308 - 0,0 0 1.022,6
00:22 6,7 2,8 5,0 76,0 9,1 305 - 0,0 0 1.022,6
00:21 6,6 2,7 4,9 76,0 8,5 304 - 0,0 0 1.022,6
00:20 6,6 2,7 4,9 76,0 8,6 302 - 0,0 0 1.022,6
00:19 6,5 2,6 4,8 76,0 8,5 304 - 0,0 0 1.022,7
00:18 6,5 2,7 4,9 76,5 8,9 308 - 0,0 0 1.022,6
00:17 6,6 2,9 5,0 77,0 10,2 315 - 0,0 0 1.022,5
00:16 6,7 3,0 5,1 77,0 10,4 309 - 0,0 0 1.022,5
00:15 6,8 3,0 5,2 76,9 10,0 298 - 0,0 0 1.022,6
00:14 6,8 2,8 5,1 75,8 8,4 306 - 0,0 0 1.022,7
00:13 6,7 2,6 4,9 75,0 9,2 299 - 0,0 0 1.022,7
00:12 6,6 2,5 4,9 75,0 9,3 311 - 0,0 0 1.022,6
00:11 6,6 2,6 4,9 75,7 9,5 317 - 0,0 0 1.022,6
00:10 6,7 2,8 5,0 76,0 10,3 307 - 0,0 0 1.022,6
00:09 6,6 2,7 4,9 76,0 9,2 314 - 0,0 0 1.022,7
00:08 6,7 2,8 5,0 76,0 9,8 312 - 0,0 0 1.022,7